Time,TemperatureF,DewpointF,PressureIn,WindDirection,WindDirectionDegrees,WindSpeedMPH,WindSpeedGustMPH,Humidity,HourlyPrecipIn,Conditions,Clouds,dailyrainin,SolarRadiationWatts/m^2,SoftwareType,DateUTC
2013-10-16 00:00:00,51.8,48.1,29.89,WNW,284,1.1,2.3,87,0.00,,,0.18,0.00,VWS V14.01,2013-10-16 05:00:00,
2013-10-16 00:01:00,51.7,48.0,29.89,WNW,284,1.1,1.1,87,0.00,,,0.00,0.00,VWS V14.01,2013-10-16 05:01:00,
2013-10-16 00:04:00,51.6,47.9,29.89,WNW,284,0.0,1.1,87,0.00,,,0.00,0.00,VWS V14.01,2013-10-16 05:04:00,
2013-10-16 00:05:00,51.6,47.9,29.89,WNW,284,0.0,1.1,87,0.00,,,0.00,0.00,VWS V14.01,2013-10-16 05:05:00,
2013-10-16 00:06:00,51.6,47.9,29.89,WNW,284,0.0,1.1,87,0.00,,,0.00,0.00,VWS V14.01,2013-10-16 05:06:00,
2013-10-16 00:08:00,51.5,47.8,29.89,WNW,284,0.0,2.3,87,0.00,,,0.00,0.00,VWS V14.01,2013-10-16 05:08:00,
2013-10-16 00:10:00,51.4,47.7,29.89,WNW,284,1.1,2.3,87,0.00,,,0.00,0.00,VWS V14.01,2013-10-16 05:10:00,
2013-10-16 00:11:00,51.4,47.7,29.89,WNW,284,0.0,2.3,87,0.00,,,0.00,0.00,VWS V14.01,2013-10-16 05:11:00,
2013-10-16 00:13:00,51.3,47.6,29.89,WNW,284,1.1,2.3,87,0.00,,,0.00,0.00,VWS V14.01,2013-10-16 05:13:00,
2013-10-16 00:14:00,51.3,47.6,29.89,WNW,284,0.0,2.3,87,0.00,,,0.00,0.00,VWS V14.01,2013-10-16 05:14:00,
2013-10-16 00:15:00,51.3,47.6,29.89,WNW,284,0.0,2.3,87,0.00,,,0.00,0.00,VWS V14.01,2013-10-16 05:15:00,
2013-10-16 00:18:00,51.2,47.5,29.90,WNW,284,1.1,1.1,87,0.00,,,0.00,0.00,VWS V14.01,2013-10-16 05:18:00,
2013-10-16 00:20:00,51.1,47.4,29.90,WNW,284,0.0,2.3,87,0.00,,,0.00,0.00,VWS V14.01,2013-10-16 05:20:00,
2013-10-16 00:21:00,51.0,47.3,29.90,WNW,284,3.4,3.4,87,0.00,,,0.00,0.00,VWS V14.01,2013-10-16 05:21:00,
2013-10-16 00:24:00,50.9,47.2,29.90,WNW,283,4.6,4.6,87,0.00,,,0.00,0.00,VWS V14.01,2013-10-16 05:24:00,
2013-10-16 00:25:00,50.8,47.1,29.90,WNW,289,5.8,6.9,87,0.00,,,0.00,0.00,VWS V14.01,2013-10-16 05:25:00,
2013-10-16 00:26:00,50.8,47.1,29.90,WNW,288,2.3,5.8,87,0.00,,,0.00,0.00,VWS V14.01,2013-10-16 05:26:00,
2013-10-16 00:27:00,50.7,47.0,29.90,West,276,2.3,6.9,87,0.00,,,0.00,0.00,VWS V14.01,2013-10-16 05:27:00,
2013-10-16 00:30:00,50.5,46.8,29.90,WNW,286,2.3,2.3,87,0.00,,,0.00,0.00,VWS V14.01,2013-10-16 05:30:00,
2013-10-16 00:31:00,50.5,46.8,29.90,WNW,286,2.3,2.3,87,0.00,,,0.00,0.00,VWS V14.01,2013-10-16 05:31:00,
2013-10-16 00:35:00,50.3,46.9,29.90,WNW,292,4.6,4.6,88,0.00,,,0.00,0.00,VWS V14.01,2013-10-16 05:35:00,
2013-10-16 00:36:00,50.3,46.9,29.90,WNW,292,1.1,4.6,88,0.00,,,0.00,0.00,VWS V14.01,2013-10-16 05:36:00,
2013-10-16 00:37:00,50.2,46.8,29.90,WNW,291,2.3,5.8,88,0.00,,,0.00,0.00,VWS V14.01,2013-10-16 05:37:00,
2013-10-16 00:39:00,50.2,46.8,29.89,WNW,291,2.3,5.8,88,0.00,,,0.00,0.00,VWS V14.01,2013-10-16 05:39:00,
2013-10-16 00:41:00,50.1,46.7,29.90,WNW,291,3.4,3.4,88,0.00,,,0.00,0.00,VWS V14.01,2013-10-16 05:41:00,
2013-10-16 00:43:00,50.0,46.6,29.90,WNW,291,1.1,3.4,88,0.00,,,0.00,0.00,VWS V14.01,2013-10-16 05:43:00,
2013-10-16 00:44:00,50.0,46.6,29.90,WNW,291,2.3,3.4,88,0.00,,,0.00,0.00,VWS V14.01,2013-10-16 05:44:00,
2013-10-16 00:45:00,50.0,46.6,29.90,WNW,291,3.4,5.8,88,0.00,,,0.00,0.00,VWS V14.01,2013-10-16 05:45:00,
2013-10-16 00:46:00,49.9,46.5,29.90,WNW,291,1.1,4.6,88,0.00,,,0.00,0.00,VWS V14.01,2013-10-16 05:46:00,
2013-10-16 00:48:00,49.9,46.5,29.90,WNW,287,4.6,5.8,88,0.00,,,0.00,0.00,VWS V14.01,2013-10-16 05:48:00,
2013-10-16 00:49:00,49.9,46.5,29.90,WNW,287,1.1,5.8,88,0.00,,,0.00,0.00,VWS V14.01,2013-10-16 05:49:00,
2013-10-16 00:50:00,49.8,46.4,29.90,WNW,287,1.1,5.8,88,0.00,,,0.00,0.00,VWS V14.01,2013-10-16 05:50:00,
2013-10-16 00:51:00,49.8,46.4,29.90,WNW,287,4.6,4.6,88,0.00,,,0.00,0.00,VWS V14.01,2013-10-16 05:51:00,
2013-10-16 00:55:00,49.6,46.2,29.90,WNW,286,2.3,4.6,88,0.00,,,0.00,0.00,VWS V14.01,2013-10-16 05:55:00,
2013-10-16 00:56:00,49.6,46.2,29.91,West,279,4.6,6.9,88,0.00,,,0.00,0.00,VWS V14.01,2013-10-16 05:56:00,
2013-10-16 00:58:00,49.5,46.1,29.90,West,278,4.6,6.9,88,0.00,,,0.00,0.00,VWS V14.01,2013-10-16 05:58:00,
2013-10-16 01:01:00,49.4,46.0,29.90,West,281,4.6,5.8,88,0.00,,,0.00,0.00,VWS V14.01,2013-10-16 06:01:00,
2013-10-16 01:03:00,49.4,46.0,29.90,WNW,284,3.4,5.8,88,0.00,,,0.00,0.00,VWS V14.01,2013-10-16 06:03:00,
2013-10-16 01:04:00,49.3,45.9,29.90,West,271,4.6,9.2,88,0.00,,,0.00,0.00,VWS V14.01,2013-10-16 06:04:00,
2013-10-16 01:06:00,49.2,45.5,29.90,WNW,284,6.9,8.1,87,0.00,,,0.00,0.00,VWS V14.01,2013-10-16 06:06:00,
2013-10-16 01:08:00,49.1,45.4,29.90,West,280,5.8,10.3,87,0.00,,,0.00,0.00,VWS V14.01,2013-10-16 06:08:00,
2013-10-16 01:09:00,49.1,45.4,29.90,West,281,8.1,10.3,87,0.00,,,0.00,0.00,VWS V14.01,2013-10-16 06:09:00,
2013-10-16 01:10:00,49.1,45.4,29.90,West,281,3.4,10.3,87,0.00,,,0.00,0.00,VWS V14.01,2013-10-16 06:10:00,
2013-10-16 01:12:00,49.0,45.3,29.90,WNW,289,3.4,6.9,87,0.00,,,0.00,0.00,VWS V14.01,2013-10-16 06:12:00,
2013-10-16 01:14:00,49.0,45.3,29.90,WNW,286,3.4,6.9,87,0.00,,,0.00,0.00,VWS V14.01,2013-10-16 06:14:00,
2013-10-16 01:15:00,48.9,45.2,29.90,WNW,297,3.4,6.9,87,0.00,,,0.00,0.00,VWS V14.01,2013-10-16 06:15:00,
2013-10-16 01:18:00,48.8,45.1,29.90,West,281,4.6,6.9,87,0.00,,,0.00,0.00,VWS V14.01,2013-10-16 06:18:00,
2013-10-16 01:19:00,48.8,45.1,29.90,West,277,4.6,6.9,87,0.00,,,0.00,0.00,VWS V14.01,2013-10-16 06:19:00,
2013-10-16 01:20:00,48.8,45.1,29.91,West,278,4.6,6.9,87,0.00,,,0.00,0.00,VWS V14.01,2013-10-16 06:20:00,
2013-10-16 01:21:00,48.8,45.1,29.91,West,277,2.3,5.8,87,0.00,,,0.00,0.00,VWS V14.01,2013-10-16 06:21:00,
2013-10-16 01:23:00,48.7,45.0,29.90,West,277,4.6,6.9,87,0.00,,,0.00,0.00,VWS V14.01,2013-10-16 06:23:00,
2013-10-16 01:24:00,48.7,45.0,29.90,West,277,3.4,6.9,87,0.00,,,0.00,0.00,VWS V14.01,2013-10-16 06:24:00,
2013-10-16 01:25:00,48.7,45.0,29.90,West,277,5.8,5.8,87,0.00,,,0.00,0.00,VWS V14.01,2013-10-16 06:25:00,
2013-10-16 01:26:00,48.7,45.0,29.90,West,277,3.4,5.8,87,0.00,,,0.00,0.00,VWS V14.01,2013-10-16 06:26:00,
2013-10-16 01:29:00,48.6,44.9,29.90,West,278,2.3,6.9,87,0.00,,,0.00,0.00,VWS V14.01,2013-10-16 06:29:00,
2013-10-16 01:31:00,48.6,44.9,29.90,West,278,2.3,2.3,87,0.00,,,0.00,0.00,VWS V14.01,2013-10-16 06:31:00,
2013-10-16 01:33:00,48.6,44.9,29.90,West,278,0.0,4.6,87,0.00,,,0.00,0.00,VWS V14.01,2013-10-16 06:33:00,
2013-10-16 01:34:00,48.5,44.8,29.90,West,278,1.1,4.6,87,0.00,,,0.00,0.00,VWS V14.01,2013-10-16 06:34:00,
2013-10-16 01:37:00,48.5,44.8,29.91,West,278,3.4,3.4,87,0.00,,,0.00,0.00,VWS V14.01,2013-10-16 06:37:00,
2013-10-16 01:38:00,48.5,44.8,29.90,West,278,2.3,3.4,87,0.00,,,0.00,0.00,VWS V14.01,2013-10-16 06:38:00,
2013-10-16 01:40:00,48.4,44.7,29.90,West,278,2.3,3.4,87,0.00,,,0.00,0.00,VWS V14.01,2013-10-16 06:40:00,
2013-10-16 01:41:00,48.3,44.6,29.91,West,278,0.0,2.3,87,0.00,,,0.00,0.00,VWS V14.01,2013-10-16 06:41:00,
2013-10-16 01:42:00,48.3,44.6,29.91,West,278,1.1,2.3,87,0.00,,,0.00,0.00,VWS V14.01,2013-10-16 06:42:00,
2013-10-16 01:43:00,48.3,44.6,29.91,West,278,1.1,3.4,87,0.00,,,0.00,0.00,VWS V14.01,2013-10-16 06:43:00,
2013-10-16 01:45:00,48.3,44.6,29.91,West,278,1.1,3.4,87,0.00,,,0.00,0.00,VWS V14.01,2013-10-16 06:45:00,
2013-10-16 01:46:00,48.2,44.5,29.90,West,278,0.0,3.4,87,0.00,,,0.00,0.00,VWS V14.01,2013-10-16 06:46:00,
2013-10-16 01:47:00,48.2,44.5,29.91,West,278,2.3,3.4,87,0.00,,,0.00,0.00,VWS V14.01,2013-10-16 06:47:00,
2013-10-16 01:48:00,48.2,44.5,29.90,West,278,0.0,3.4,87,0.00,,,0.00,0.00,VWS V14.01,2013-10-16 06:48:00,
2013-10-16 01:50:00,48.1,44.4,29.90,West,278,1.1,1.1,87,0.00,,,0.00,0.00,VWS V14.01,2013-10-16 06:50:00,
2013-10-16 01:51:00,48.1,44.4,29.91,West,278,1.1,3.4,87,0.00,,,0.00,0.00,VWS V14.01,2013-10-16 06:51:00,
2013-10-16 01:53:00,48.1,44.4,29.90,West,278,1.1,3.4,87,0.00,,,0.00,0.00,VWS V14.01,2013-10-16 06:53:00,
2013-10-16 01:54:00,48.0,44.3,29.90,West,278,3.4,4.6,87,0.00,,,0.00,0.00,VWS V14.01,2013-10-16 06:54:00,
2013-10-16 01:55:00,48.0,44.3,29.90,West,277,3.4,5.8,87,0.00,,,0.00,0.00,VWS V14.01,2013-10-16 06:55:00,
2013-10-16 01:56:00,48.0,44.3,29.90,West,277,2.3,3.4,87,0.00,,,0.00,0.00,VWS V14.01,2013-10-16 06:56:00,
2013-10-16 01:57:00,48.0,44.3,29.90,West,277,4.6,4.6,87,0.00,,,0.00,0.00,VWS V14.01,2013-10-16 06:57:00,
2013-10-16 01:58:00,47.9,44.2,29.90,West,273,3.4,6.9,87,0.00,,,0.00,0.00,VWS V14.01,2013-10-16 06:58:00,
2013-10-16 02:00:00,47.9,44.2,29.91,West,273,3.4,3.4,87,0.00,,,0.00,0.00,VWS V14.01,2013-10-16 07:00:00,
2013-10-16 02:01:00,47.8,44.1,29.91,West,273,1.1,3.4,87,0.00,,,0.00,0.00,VWS V14.01,2013-10-16 07:01:00,
2013-10-16 02:02:00,47.8,44.1,29.91,West,273,2.3,3.4,87,0.00,,,0.00,0.00,VWS V14.01,2013-10-16 07:02:00,
2013-10-16 02:04:00,47.8,44.1,29.90,West,269,2.3,6.9,87,0.00,,,0.00,0.00,VWS V14.01,2013-10-16 07:04:00,
2013-10-16 02:06:00,47.7,44.0,29.90,West,269,3.4,3.4,87,0.00,,,0.00,0.00,VWS V14.01,2013-10-16 07:06:00,
2013-10-16 02:08:00,47.7,44.0,29.90,West,269,3.4,3.4,87,0.00,,,0.00,0.00,VWS V14.01,2013-10-16 07:08:00,
2013-10-16 02:09:00,47.7,44.0,29.90,West,267,4.6,4.6,87,0.00,,,0.00,0.00,VWS V14.01,2013-10-16 07:09:00,
2013-10-16 02:11:00,47.6,43.9,29.90,West,265,2.3,6.9,87,0.00,,,0.00,0.00,VWS V14.01,2013-10-16 07:11:00,
2013-10-16 02:13:00,47.5,44.1,29.90,West,263,2.3,6.9,88,0.00,,,0.00,0.00,VWS V14.01,2013-10-16 07:13:00,
2013-10-16 02:14:00,47.5,44.1,29.90,West,262,4.6,6.9,88,0.00,,,0.00,0.00,VWS V14.01,2013-10-16 07:14:00,
2013-10-16 02:15:00,47.5,44.1,29.90,West,261,4.6,6.9,88,0.00,,,0.00,0.00,VWS V14.01,2013-10-16 07:15:00,
2013-10-16 02:18:00,47.4,44.0,29.90,West,264,3.4,4.6,88,0.00,,,0.00,0.00,VWS V14.01,2013-10-16 07:18:00,
2013-10-16 02:19:00,47.4,44.0,29.90,West,263,3.4,4.6,88,0.00,,,0.00,0.00,VWS V14.01,2013-10-16 07:19:00,
2013-10-16 02:20:00,47.3,43.9,29.90,West,263,6.9,6.9,88,0.00,,,0.00,0.00,VWS V14.01,2013-10-16 07:20:00,
2013-10-16 02:21:00,47.3,43.9,29.90,West,263,3.4,6.9,88,0.00,,,0.00,0.00,VWS V14.01,2013-10-16 07:21:00,
2013-10-16 02:23:00,47.2,43.8,29.90,WSW,255,6.9,8.1,88,0.00,,,0.00,0.00,VWS V14.01,2013-10-16 07:23:00,
2013-10-16 02:24:00,47.2,43.8,29.90,WSW,254,4.6,8.1,88,0.00,,,0.00,0.00,VWS V14.01,2013-10-16 07:24:00,
2013-10-16 02:25:00,47.2,43.8,29.90,WSW,254,3.4,8.1,88,0.00,,,0.00,0.00,VWS V14.01,2013-10-16 07:25:00,
2013-10-16 02:26:00,47.1,43.7,29.90,West,259,4.6,5.8,88,0.00,,,0.00,0.00,VWS V14.01,2013-10-16 07:26:00,
2013-10-16 02:28:00,47.1,43.7,29.90,West,281,2.3,6.9,88,0.00,,,0.00,0.00,VWS V14.01,2013-10-16 07:28:00,
2013-10-16 02:29:00,47.0,43.6,29.90,West,265,3.4,6.9,88,0.00,,,0.00,0.00,VWS V14.01,2013-10-16 07:29:00,
2013-10-16 02:30:00,47.0,43.6,29.90,West,263,4.6,6.9,88,0.00,,,0.00,0.00,VWS V14.01,2013-10-16 07:30:00,
2013-10-16 02:31:00,47.0,43.6,29.90,WSW,254,6.9,8.1,88,0.00,,,0.00,0.00,VWS V14.01,2013-10-16 07:31:00,
2013-10-16 02:32:00,47.0,43.6,29.90,WSW,257,4.6,8.1,88,0.00,,,0.00,0.00,VWS V14.01,2013-10-16 07:32:00,
2013-10-16 02:33:00,47.0,43.6,29.90,West,263,2.3,8.1,88,0.00,,,0.00,0.00,VWS V14.01,2013-10-16 07:33:00,
2013-10-16 02:34:00,46.9,43.5,29.90,WSW,255,9.2,9.2,88,0.00,,,0.00,0.00,VWS V14.01,2013-10-16 07:34:00,
2013-10-16 02:35:00,46.9,43.5,29.90,West,275,3.4,9.2,88,0.00,,,0.00,0.00,VWS V14.01,2013-10-16 07:35:00,
2013-10-16 02:37:00,46.9,43.5,29.90,West,265,5.8,6.9,88,0.00,,,0.00,0.00,VWS V14.01,2013-10-16 07:37:00,
2013-10-16 02:39:00,46.8,43.4,29.90,WSW,256,5.8,6.9,88,0.00,,,0.00,0.00,VWS V14.01,2013-10-16 07:39:00,
2013-10-16 02:40:00,46.8,43.4,29.90,WSW,250,3.4,6.9,88,0.00,,,0.00,0.00,VWS V14.01,2013-10-16 07:40:00,
2013-10-16 02:43:00,46.8,43.4,29.90,WSW,250,8.1,9.2,88,0.00,,,0.00,0.00,VWS V14.01,2013-10-16 07:43:00,
2013-10-16 02:46:00,46.7,43.3,29.90,WSW,251,4.6,5.8,88,0.00,,,0.00,0.00,VWS V14.01,2013-10-16 07:46:00,
2013-10-16 02:48:00,46.7,43.3,29.90,WSW,258,5.8,9.2,88,0.00,,,0.00,0.00,VWS V14.01,2013-10-16 07:48:00,
2013-10-16 02:49:00,46.7,43.3,29.90,WSW,257,4.6,9.2,88,0.00,,,0.00,0.00,VWS V14.01,2013-10-16 07:49:00,
2013-10-16 02:51:00,46.6,43.2,29.90,WSW,250,9.2,10.3,88,0.00,,,0.00,0.00,VWS V14.01,2013-10-16 07:51:00,
2013-10-16 02:53:00,46.6,43.2,29.90,West,263,5.8,10.3,88,0.00,,,0.00,0.00,VWS V14.01,2013-10-16 07:53:00,
2013-10-16 02:54:00,46.6,43.2,29.90,West,261,3.4,10.3,88,0.00,,,0.00,0.00,VWS V14.01,2013-10-16 07:54:00,
2013-10-16 02:55:00,46.5,43.1,29.90,WSW,255,5.8,6.9,88,0.00,,,0.00,0.00,VWS V14.01,2013-10-16 07:55:00,
2013-10-16 02:58:00,46.5,43.1,29.90,WSW,256,4.6,6.9,88,0.00,,,0.00,0.00,VWS V14.01,2013-10-16 07:58:00,
2013-10-16 02:59:00,46.5,43.1,29.90,West,266,3.4,8.1,88,0.00,,,0.00,0.00,VWS V14.01,2013-10-16 07:59:00,
2013-10-16 03:00:00,46.5,43.1,29.90,SW,235,5.8,5.8,88,0.00,,,0.00,0.00,VWS V14.01,2013-10-16 08:00:00,
2013-10-16 03:02:00,46.5,43.1,29.90,WSW,238,1.1,5.8,88,0.00,,,0.00,0.00,VWS V14.01,2013-10-16 08:02:00,
2013-10-16 03:04:00,46.4,43.0,29.90,WSW,248,5.8,6.9,88,0.00,,,0.00,0.00,VWS V14.01,2013-10-16 08:04:00,
2013-10-16 03:05:00,46.4,43.0,29.90,SW,227,5.8,6.9,88,0.00,,,0.00,0.00,VWS V14.01,2013-10-16 08:05:00,
2013-10-16 03:06:00,46.4,43.0,29.90,WSW,237,6.9,6.9,88,0.00,,,0.00,0.00,VWS V14.01,2013-10-16 08:06:00,
2013-10-16 03:08:00,46.4,43.0,29.90,WSW,237,1.1,6.9,88,0.00,,,0.00,0.00,VWS V14.01,2013-10-16 08:08:00,
2013-10-16 03:10:00,46.4,43.0,29.90,WSW,237,1.1,6.9,88,0.00,,,0.00,0.00,VWS V14.01,2013-10-16 08:10:00,
2013-10-16 03:11:00,46.4,43.0,29.90,SSW,208,2.3,5.8,88,0.00,,,0.00,0.00,VWS V14.01,2013-10-16 08:11:00,
2013-10-16 03:15:00,46.3,43.0,29.89,SSW,209,1.1,5.8,88,0.00,,,0.00,0.00,VWS V14.01,2013-10-16 08:15:00,
2013-10-16 03:16:00,46.3,43.0,29.89,SSW,209,1.1,1.1,88,0.00,,,0.00,0.00,VWS V14.01,2013-10-16 08:16:00,
2013-10-16 03:17:00,46.2,42.8,29.89,SW,225,0.0,3.4,88,0.00,,,0.00,0.00,VWS V14.01,2013-10-16 08:17:00,
2013-10-16 03:19:00,46.2,42.8,29.89,SW,232,1.1,5.8,88,0.00,,,0.00,0.00,VWS V14.01,2013-10-16 08:19:00,
2013-10-16 03:20:00,46.1,42.8,29.89,SW,233,1.1,5.8,88,0.00,,,0.00,0.00,VWS V14.01,2013-10-16 08:20:00,
2013-10-16 03:21:00,46.1,42.8,29.89,SW,233,2.3,3.4,88,0.00,,,0.00,0.00,VWS V14.01,2013-10-16 08:21:00,
2013-10-16 03:23:00,46.0,42.7,29.89,WSW,237,3.4,5.8,88,0.00,,,0.00,0.00,VWS V14.01,2013-10-16 08:23:00,
2013-10-16 03:24:00,46.0,42.7,29.89,SW,223,2.3,5.8,88,0.00,,,0.00,0.00,VWS V14.01,2013-10-16 08:24:00,
2013-10-16 03:26:00,46.0,42.7,29.89,SSW,213,5.8,5.8,88,0.00,,,0.00,0.00,VWS V14.01,2013-10-16 08:26:00,
2013-10-16 03:27:00,45.9,42.5,29.90,WSW,251,2.3,9.2,88,0.00,,,0.00,0.00,VWS V14.01,2013-10-16 08:27:00,
2013-10-16 03:28:00,45.9,42.5,29.89,SW,233,1.1,9.2,88,0.00,,,0.00,0.00,VWS V14.01,2013-10-16 08:28:00,
2013-10-16 03:30:00,45.8,42.5,29.89,WSW,254,1.1,9.2,88,0.00,,,0.00,0.00,VWS V14.01,2013-10-16 08:30:00,
2013-10-16 03:31:00,45.7,42.4,29.90,SW,234,3.4,3.4,88,0.00,,,0.00,0.00,VWS V14.01,2013-10-16 08:31:00,
2013-10-16 03:32:00,45.7,42.4,29.90,SW,234,2.3,3.4,88,0.00,,,0.00,0.00,VWS V14.01,2013-10-16 08:32:00,
2013-10-16 03:33:00,45.7,42.4,29.90,WSW,244,0.0,6.9,88,0.00,,,0.00,0.00,VWS V14.01,2013-10-16 08:33:00,
2013-10-16 03:35:00,45.6,42.3,29.90,WSW,244,2.3,6.9,88,0.00,,,0.00,0.00,VWS V14.01,2013-10-16 08:35:00,
2013-10-16 03:36:00,45.6,42.3,29.89,WSW,250,5.8,9.2,88,0.00,,,0.00,0.00,VWS V14.01,2013-10-16 08:36:00,
2013-10-16 03:38:00,45.5,42.2,29.89,SW,232,2.3,9.2,88,0.00,,,0.00,0.00,VWS V14.01,2013-10-16 08:38:00,
2013-10-16 03:39:00,45.4,42.1,29.90,SW,232,2.3,9.2,88,0.00,,,0.00,0.00,VWS V14.01,2013-10-16 08:39:00,
2013-10-16 03:41:00,45.3,42.0,29.89,WSW,246,3.4,3.4,88,0.00,,,0.00,0.00,VWS V14.01,2013-10-16 08:41:00,
2013-10-16 03:42:00,45.3,42.0,29.90,WSW,240,3.4,8.1,88,0.00,,,0.00,0.00,VWS V14.01,2013-10-16 08:42:00,
2013-10-16 03:44:00,45.2,41.9,29.90,WSW,243,1.1,8.1,88,0.00,,,0.00,0.00,VWS V14.01,2013-10-16 08:44:00,
2013-10-16 03:45:00,45.1,41.8,29.89,WSW,241,4.6,4.6,88,0.00,,,0.00,0.00,VWS V14.01,2013-10-16 08:45:00,
2013-10-16 03:46:00,45.1,41.8,29.89,WSW,244,3.4,4.6,88,0.00,,,0.00,0.00,VWS V14.01,2013-10-16 08:46:00,
2013-10-16 03:47:00,45.1,41.8,29.90,WSW,244,3.4,6.9,88,0.00,,,0.00,0.00,VWS V14.01,2013-10-16 08:47:00,
2013-10-16 03:48:00,45.0,41.7,29.89,WSW,244,4.6,6.9,88,0.00,,,0.00,0.00,VWS V14.01,2013-10-16 08:48:00,
2013-10-16 03:49:00,45.0,41.7,29.89,WSW,245,3.4,6.9,88,0.00,,,0.00,0.00,VWS V14.01,2013-10-16 08:49:00,
2013-10-16 03:50:00,45.0,41.7,29.89,WSW,245,3.4,6.9,88,0.00,,,0.00,0.00,VWS V14.01,2013-10-16 08:50:00,
2013-10-16 03:52:00,44.9,41.6,29.89,WSW,243,2.3,4.6,88,0.00,,,0.00,0.00,VWS V14.01,2013-10-16 08:52:00,
2013-10-16 03:53:00,44.9,41.6,29.89,WSW,244,2.3,5.8,88,0.00,,,0.00,0.00,VWS V14.01,2013-10-16 08:53:00,
2013-10-16 03:55:00,44.8,41.5,29.89,WSW,252,6.9,8.1,88,0.00,,,0.00,0.00,VWS V14.01,2013-10-16 08:55:00,
2013-10-16 03:57:00,44.7,41.4,29.89,WSW,250,5.8,10.3,88,0.00,,,0.00,0.00,VWS V14.01,2013-10-16 08:57:00,
2013-10-16 03:58:00,44.7,41.7,29.89,WSW,242,3.4,10.3,89,0.00,,,0.00,0.00,VWS V14.01,2013-10-16 08:58:00,
2013-10-16 04:00:00,44.6,41.6,29.89,WSW,238,1.1,10.3,89,0.00,,,0.00,0.00,VWS V14.01,2013-10-16 09:00:00,
2013-10-16 04:01:00,44.6,41.6,29.89,WSW,240,6.9,8.1,89,0.00,,,0.00,0.00,VWS V14.01,2013-10-16 09:01:00,
2013-10-16 04:02:00,44.6,41.6,29.89,WSW,241,5.8,8.1,89,0.00,,,0.00,0.00,VWS V14.01,2013-10-16 09:02:00,
2013-10-16 04:03:00,44.5,41.5,29.89,SW,231,4.6,8.1,89,0.00,,,0.00,0.00,VWS V14.01,2013-10-16 09:03:00,
2013-10-16 04:04:00,44.5,41.5,29.89,SW,215,5.8,8.1,89,0.00,,,0.00,0.00,VWS V14.01,2013-10-16 09:04:00,
2013-10-16 04:05:00,44.5,41.5,29.89,WSW,244,2.3,8.1,89,0.00,,,0.00,0.00,VWS V14.01,2013-10-16 09:05:00,
2013-10-16 04:07:00,44.4,41.4,29.89,WSW,243,3.4,4.6,89,0.00,,,0.00,0.00,VWS V14.01,2013-10-16 09:07:00,
2013-10-16 04:09:00,44.3,41.3,29.89,WSW,242,4.6,6.9,89,0.00,,,0.00,0.00,VWS V14.01,2013-10-16 09:09:00,
2013-10-16 04:10:00,44.3,41.3,29.89,WSW,241,5.8,6.9,89,0.00,,,0.00,0.00,VWS V14.01,2013-10-16 09:10:00,
2013-10-16 04:11:00,44.3,41.3,29.89,WSW,242,3.4,5.8,89,0.00,,,0.00,0.00,VWS V14.01,2013-10-16 09:11:00,
2013-10-16 04:12:00,44.3,41.3,29.89,SW,236,3.4,5.8,89,0.00,,,0.00,0.00,VWS V14.01,2013-10-16 09:12:00,
2013-10-16 04:14:00,44.2,41.2,29.89,SW,233,2.3,5.8,89,0.00,,,0.00,0.00,VWS V14.01,2013-10-16 09:14:00,
2013-10-16 04:15:00,44.2,41.2,29.89,SW,233,3.4,5.8,89,0.00,,,0.00,0.00,VWS V14.01,2013-10-16 09:15:00,
2013-10-16 04:16:00,44.1,41.1,29.89,SW,232,3.4,5.8,89,0.00,,,0.00,0.00,VWS V14.01,2013-10-16 09:16:00,
2013-10-16 04:17:00,44.1,41.1,29.89,SW,232,4.6,6.9,89,0.00,,,0.00,0.00,VWS V14.01,2013-10-16 09:17:00,
2013-10-16 04:18:00,44.1,41.1,29.90,WSW,238,4.6,6.9,89,0.00,,,0.00,0.00,VWS V14.01,2013-10-16 09:18:00,
2013-10-16 04:19:00,44.1,41.1,29.90,WSW,238,3.4,6.9,89,0.00,,,0.00,0.00,VWS V14.01,2013-10-16 09:19:00,
2013-10-16 04:20:00,44.1,41.1,29.90,WSW,238,0.0,6.9,89,0.00,,,0.00,0.00,VWS V14.01,2013-10-16 09:20:00,
2013-10-16 04:21:00,44.0,41.0,29.90,WSW,238,4.6,4.6,89,0.00,,,0.00,0.00,VWS V14.01,2013-10-16 09:21:00,
2013-10-16 04:23:00,44.0,41.0,29.90,West,279,1.1,4.6,89,0.00,,,0.00,0.00,VWS V14.01,2013-10-16 09:23:00,
2013-10-16 04:24:00,43.9,40.9,29.89,WSW,243,2.3,4.6,89,0.00,,,0.00,0.00,VWS V14.01,2013-10-16 09:24:00,
2013-10-16 04:25:00,43.9,40.9,29.89,SW,235,1.1,4.6,89,0.00,,,0.00,0.00,VWS V14.01,2013-10-16 09:25:00,
2013-10-16 04:26:00,43.9,40.9,29.89,WSW,239,5.8,6.9,89,0.00,,,0.00,0.00,VWS V14.01,2013-10-16 09:26:00,
2013-10-16 04:27:00,43.8,40.8,29.89,WSW,242,4.6,6.9,89,0.00,,,0.00,0.00,VWS V14.01,2013-10-16 09:27:00,
2013-10-16 04:28:00,43.8,40.8,29.89,WSW,250,5.8,6.9,89,0.00,,,0.00,0.00,VWS V14.01,2013-10-16 09:28:00,
2013-10-16 04:29:00,43.8,40.8,29.89,WSW,250,4.6,6.9,89,0.00,,,0.00,0.00,VWS V14.01,2013-10-16 09:29:00,
2013-10-16 04:30:00,43.7,41.0,29.89,WSW,244,5.8,6.9,90,0.00,,,0.00,0.00,VWS V14.01,2013-10-16 09:30:00,
2013-10-16 04:31:00,43.7,41.0,29.89,SW,236,4.6,5.8,90,0.00,,,0.00,0.00,VWS V14.01,2013-10-16 09:31:00,
2013-10-16 04:33:00,43.6,40.9,29.90,WSW,252,8.1,8.1,90,0.00,,,0.00,0.00,VWS V14.01,2013-10-16 09:33:00,
2013-10-16 04:35:00,43.6,40.9,29.90,WSW,244,3.4,9.2,90,0.00,,,0.00,0.00,VWS V14.01,2013-10-16 09:35:00,
2013-10-16 04:36:00,43.6,40.9,29.90,WSW,244,4.6,4.6,90,0.00,,,0.00,0.00,VWS V14.01,2013-10-16 09:36:00,
2013-10-16 04:37:00,43.5,40.8,29.90,SW,228,6.9,6.9,90,0.00,,,0.00,0.00,VWS V14.01,2013-10-16 09:37:00,
2013-10-16 04:38:00,43.5,40.8,29.90,SW,233,3.4,6.9,90,0.00,,,0.00,0.00,VWS V14.01,2013-10-16 09:38:00,
2013-10-16 04:40:00,43.4,40.7,29.90,SW,236,2.3,6.9,90,0.00,,,0.00,0.00,VWS V14.01,2013-10-16 09:40:00,
2013-10-16 04:41:00,43.4,40.7,29.90,WSW,244,4.6,4.6,90,0.00,,,0.00,0.00,VWS V14.01,2013-10-16 09:41:00,
2013-10-16 04:43:00,43.4,40.7,29.90,SW,236,3.4,5.8,90,0.00,,,0.00,0.00,VWS V14.01,2013-10-16 09:43:00,
2013-10-16 04:45:00,43.3,40.6,29.90,WSW,243,6.9,6.9,90,0.00,,,0.00,0.00,VWS V14.01,2013-10-16 09:45:00,
2013-10-16 04:46:00,43.3,40.6,29.90,WSW,242,2.3,8.1,90,0.00,,,0.00,0.00,VWS V14.01,2013-10-16 09:46:00,
2013-10-16 04:47:00,43.3,40.6,29.90,SW,233,3.4,8.1,90,0.00,,,0.00,0.00,VWS V14.01,2013-10-16 09:47:00,
2013-10-16 04:49:00,43.3,40.6,29.90,WSW,254,1.1,8.1,90,0.00,,,0.00,0.00,VWS V14.01,2013-10-16 09:49:00,
2013-10-16 04:51:00,43.2,40.5,29.90,WSW,242,5.8,8.1,90,0.00,,,0.00,0.00,VWS V14.01,2013-10-16 09:51:00,
2013-10-16 04:52:00,43.2,40.5,29.90,WSW,242,2.3,8.1,90,0.00,,,0.00,0.00,VWS V14.01,2013-10-16 09:52:00,
2013-10-16 04:53:00,43.2,40.5,29.90,WSW,240,2.3,8.1,90,0.00,,,0.00,0.00,VWS V14.01,2013-10-16 09:53:00,
2013-10-16 04:54:00,43.1,40.4,29.90,WSW,243,3.4,8.1,90,0.00,,,0.00,0.00,VWS V14.01,2013-10-16 09:54:00,
2013-10-16 04:55:00,43.1,40.4,29.90,WSW,242,9.2,9.2,90,0.00,,,0.00,0.00,VWS V14.01,2013-10-16 09:55:00,
2013-10-16 04:57:00,43.1,40.7,29.90,WSW,249,2.3,9.2,91,0.00,,,0.00,0.00,VWS V14.01,2013-10-16 09:57:00,
2013-10-16 04:58:00,43.1,40.7,29.90,WSW,249,3.4,9.2,91,0.00,,,0.00,0.00,VWS V14.01,2013-10-16 09:58:00,
2013-10-16 04:59:00,43.1,40.7,29.90,WSW,249,1.1,9.2,91,0.00,,,0.00,0.00,VWS V14.01,2013-10-16 09:59:00,
2013-10-16 05:00:00,43.1,40.7,29.90,SW,231,4.6,9.2,91,0.00,,,0.00,0.00,VWS V14.01,2013-10-16 10:00:00,
2013-10-16 05:01:00,43.1,40.4,29.90,SW,229,6.9,9.2,90,0.00,,,0.00,0.00,VWS V14.01,2013-10-16 10:01:00,
2013-10-16 05:03:00,43.0,40.6,29.90,SW,234,3.4,9.2,91,0.00,,,0.00,0.00,VWS V14.01,2013-10-16 10:03:00,
2013-10-16 05:04:00,43.0,40.6,29.90,SW,234,2.3,9.2,91,0.00,,,0.00,0.00,VWS V14.01,2013-10-16 10:04:00,
2013-10-16 05:06:00,43.0,40.6,29.90,WSW,242,4.6,4.6,91,0.00,,,0.00,0.00,VWS V14.01,2013-10-16 10:06:00,
2013-10-16 05:09:00,42.9,40.5,29.90,WSW,248,2.3,6.9,91,0.00,,,0.00,0.00,VWS V14.01,2013-10-16 10:09:00,
2013-10-16 05:11:00,42.9,40.5,29.90,SW,227,1.1,8.1,91,0.00,,,0.00,0.00,VWS V14.01,2013-10-16 10:11:00,
2013-10-16 05:12:00,42.9,40.5,29.90,SW,227,3.4,8.1,91,0.00,,,0.00,0.00,VWS V14.01,2013-10-16 10:12:00,
2013-10-16 05:13:00,42.9,40.5,29.90,SW,227,8.1,8.1,91,0.00,,,0.00,0.00,VWS V14.01,2013-10-16 10:13:00,
2013-10-16 05:14:00,42.9,40.5,29.90,SSW,211,4.6,8.1,91,0.00,,,0.00,0.00,VWS V14.01,2013-10-16 10:14:00,
2013-10-16 05:15:00,42.9,40.5,29.90,WSW,239,3.4,8.1,91,0.00,,,0.00,0.00,VWS V14.01,2013-10-16 10:15:00,
2013-10-16 05:16:00,42.9,40.5,29.90,SW,223,4.6,4.6,91,0.00,,,0.00,0.00,VWS V14.01,2013-10-16 10:16:00,
2013-10-16 05:17:00,42.9,40.5,29.90,SW,232,3.4,5.8,91,0.00,,,0.00,0.00,VWS V14.01,2013-10-16 10:17:00,
2013-10-16 05:18:00,42.9,40.5,29.90,SW,232,3.4,5.8,91,0.00,,,0.00,0.00,VWS V14.01,2013-10-16 10:18:00,
2013-10-16 05:19:00,42.9,40.5,29.90,WSW,245,6.9,6.9,91,0.00,,,0.00,0.00,VWS V14.01,2013-10-16 10:19:00,
2013-10-16 05:20:00,42.9,40.5,29.90,WSW,246,3.4,6.9,91,0.00,,,0.00,0.00,VWS V14.01,2013-10-16 10:20:00,
2013-10-16 05:22:00,42.9,40.5,29.90,WSW,246,3.4,8.1,91,0.00,,,0.00,0.00,VWS V14.01,2013-10-16 10:22:00,
2013-10-16 05:24:00,42.9,40.5,29.90,WSW,246,3.4,8.1,91,0.00,,,0.00,0.00,VWS V14.01,2013-10-16 10:24:00,
2013-10-16 05:25:00,42.9,40.5,29.90,WSW,247,6.9,10.3,91,0.00,,,0.00,0.00,VWS V14.01,2013-10-16 10:25:00,
2013-10-16 05:29:00,42.9,40.5,29.90,WSW,245,5.8,10.3,91,0.00,,,0.00,0.00,VWS V14.01,2013-10-16 10:29:00,
2013-10-16 05:30:00,42.9,40.5,29.90,SW,230,8.1,10.3,91,0.00,,,0.00,0.00,VWS V14.01,2013-10-16 10:30:00,
2013-10-16 05:31:00,42.9,40.7,29.90,West,261,5.8,9.2,92,0.00,,,0.00,0.00,VWS V14.01,2013-10-16 10:31:00,
2013-10-16 05:35:00,43.0,40.8,29.90,WSW,246,4.6,12.6,92,0.00,,,0.00,0.00,VWS V14.01,2013-10-16 10:35:00,
2013-10-16 05:37:00,43.1,40.9,29.90,WSW,254,8.1,8.1,92,0.00,,,0.00,0.00,VWS V14.01,2013-10-16 10:37:00,
2013-10-16 05:38:00,43.1,40.9,29.90,WSW,255,4.6,9.2,92,0.00,,,0.00,0.00,VWS V14.01,2013-10-16 10:38:00,
2013-10-16 05:41:00,43.2,41.0,29.90,WSW,246,8.1,8.1,92,0.00,,,0.00,0.00,VWS V14.01,2013-10-16 10:41:00,
2013-10-16 05:42:00,43.2,41.0,29.90,WSW,247,5.8,9.2,92,0.00,,,0.00,0.00,VWS V14.01,2013-10-16 10:42:00,
2013-10-16 05:43:00,43.2,41.0,29.90,WSW,250,3.4,9.2,92,0.00,,,0.00,0.00,VWS V14.01,2013-10-16 10:43:00,
2013-10-16 05:44:00,43.3,41.1,29.90,SW,227,4.6,9.2,92,0.00,,,0.00,0.00,VWS V14.01,2013-10-16 10:44:00,
2013-10-16 05:46:00,43.3,41.1,29.90,SW,233,9.2,11.5,92,0.00,,,0.00,0.00,VWS V14.01,2013-10-16 10:46:00,
2013-10-16 05:47:00,43.4,41.2,29.90,WSW,246,8.1,11.5,92,0.00,,,0.00,0.00,VWS V14.01,2013-10-16 10:47:00,
2013-10-16 05:48:00,43.4,41.2,29.90,WSW,242,6.9,11.5,92,0.00,,,0.00,0.00,VWS V14.01,2013-10-16 10:48:00,
2013-10-16 05:49:00,43.4,41.2,29.90,WSW,251,3.4,11.5,92,0.00,,,0.00,0.00,VWS V14.01,2013-10-16 10:49:00,
2013-10-16 05:50:00,43.4,41.2,29.90,SW,236,5.8,11.5,92,0.00,,,0.00,0.00,VWS V14.01,2013-10-16 10:50:00,
2013-10-16 05:53:00,43.5,41.6,29.90,WSW,246,9.2,9.2,93,0.00,,,0.00,0.00,VWS V14.01,2013-10-16 10:53:00,
2013-10-16 05:54:00,43.6,41.7,29.90,WSW,246,4.6,9.2,93,0.00,,,0.00,0.00,VWS V14.01,2013-10-16 10:54:00,
2013-10-16 05:55:00,43.6,41.7,29.90,WSW,246,3.4,9.2,93,0.00,,,0.00,0.00,VWS V14.01,2013-10-16 10:55:00,
2013-10-16 05:56:00,43.6,41.7,29.90,WSW,244,8.1,8.1,93,0.00,,,0.00,0.00,VWS V14.01,2013-10-16 10:56:00,
2013-10-16 05:59:00,43.7,41.8,29.90,WSW,256,6.9,10.3,93,0.00,,,0.00,0.00,VWS V14.01,2013-10-16 10:59:00,
2013-10-16 06:00:00,43.7,41.8,29.90,West,269,8.1,10.3,93,0.00,,,0.00,0.00,VWS V14.01,2013-10-16 11:00:00,
2013-10-16 06:01:00,43.7,41.8,29.90,WSW,256,5.8,6.9,93,0.00,,,0.00,0.00,VWS V14.01,2013-10-16 11:01:00,
2013-10-16 06:02:00,43.8,41.9,29.90,WSW,245,4.6,6.9,93,0.00,,,0.00,0.00,VWS V14.01,2013-10-16 11:02:00,
2013-10-16 06:04:00,43.8,41.9,29.90,WSW,257,5.8,9.2,93,0.00,,,0.00,0.00,VWS V14.01,2013-10-16 11:04:00,
2013-10-16 06:05:00,43.8,41.9,29.90,WSW,257,3.4,9.2,93,0.00,,,0.00,0.00,VWS V14.01,2013-10-16 11:05:00,
2013-10-16 06:07:00,43.9,42.0,29.90,SW,234,2.3,5.8,93,0.00,,,0.00,0.00,VWS V14.01,2013-10-16 11:07:00,
2013-10-16 06:08:00,43.9,42.0,29.90,SW,234,3.4,5.8,93,0.00,,,0.00,0.00,VWS V14.01,2013-10-16 11:08:00,
2013-10-16 06:10:00,44.0,42.1,29.90,SW,231,1.1,6.9,93,0.00,,,0.00,0.00,VWS V14.01,2013-10-16 11:10:00,
2013-10-16 06:11:00,44.0,42.1,29.90,SW,232,2.3,4.6,93,0.00,,,0.00,0.00,VWS V14.01,2013-10-16 11:11:00,
2013-10-16 06:12:00,44.0,42.1,29.90,SW,232,2.3,4.6,93,0.00,,,0.00,0.00,VWS V14.01,2013-10-16 11:12:00,
2013-10-16 06:13:00,44.1,42.2,29.90,SW,223,4.6,4.6,93,0.00,,,0.00,0.00,VWS V14.01,2013-10-16 11:13:00,
2013-10-16 06:16:00,44.2,42.3,29.90,SW,236,2.3,5.8,93,0.00,,,0.00,0.00,VWS V14.01,2013-10-16 11:16:00,
2013-10-16 06:17:00,44.2,42.3,29.90,SW,234,5.8,5.8,93,0.00,,,0.00,0.00,VWS V14.01,2013-10-16 11:17:00,
2013-10-16 06:18:00,44.3,42.4,29.90,WSW,238,3.4,9.2,93,0.00,,,0.00,0.00,VWS V14.01,2013-10-16 11:18:00,
2013-10-16 06:19:00,44.3,42.4,29.90,SSW,209,5.8,9.2,93,0.00,,,0.00,0.00,VWS V14.01,2013-10-16 11:19:00,
2013-10-16 06:21:00,44.3,42.4,29.90,West,261,1.1,3.4,93,0.00,,,0.00,0.00,VWS V14.01,2013-10-16 11:21:00,
2013-10-16 06:22:00,44.4,42.5,29.90,WSW,249,6.9,10.3,93,0.00,,,0.00,0.00,VWS V14.01,2013-10-16 11:22:00,
2013-10-16 06:23:00,44.4,42.5,29.90,WSW,242,4.6,10.3,93,0.00,,,0.00,0.00,VWS V14.01,2013-10-16 11:23:00,
2013-10-16 06:24:00,44.4,42.5,29.90,SW,225,1.1,10.3,93,0.00,,,0.00,0.00,VWS V14.01,2013-10-16 11:24:00,
2013-10-16 06:26:00,44.5,42.6,29.90,SW,226,4.6,5.8,93,0.00,,,0.00,0.00,VWS V14.01,2013-10-16 11:26:00,
2013-10-16 06:27:00,44.5,42.6,29.90,WSW,240,2.3,5.8,93,0.00,,,0.00,0.00,VWS V14.01,2013-10-16 11:27:00,
2013-10-16 06:28:00,44.6,42.7,29.90,SW,231,3.4,5.8,93,0.00,,,0.00,0.00,VWS V14.01,2013-10-16 11:28:00,
2013-10-16 06:29:00,44.6,42.7,29.90,SW,233,4.6,5.8,93,0.00,,,0.00,0.00,VWS V14.01,2013-10-16 11:29:00,
2013-10-16 06:31:00,44.6,42.7,29.90,WSW,238,3.4,6.9,93,0.00,,,0.00,0.00,VWS V14.01,2013-10-16 11:31:00,
2013-10-16 06:33:00,44.7,42.8,29.90,SW,227,3.4,6.9,93,0.00,,,0.00,0.00,VWS V14.01,2013-10-16 11:33:00,
2013-10-16 06:34:00,44.7,42.8,29.90,WSW,251,2.3,6.9,93,0.00,,,0.00,0.00,VWS V14.01,2013-10-16 11:34:00,
2013-10-16 06:35:00,44.7,42.8,29.90,WSW,240,5.8,6.9,93,0.00,,,0.00,0.00,VWS V14.01,2013-10-16 11:35:00,
2013-10-16 06:38:00,44.8,42.9,29.90,WSW,243,5.8,6.9,93,0.00,,,0.00,0.00,VWS V14.01,2013-10-16 11:38:00,
2013-10-16 06:39:00,44.8,42.9,29.90,WSW,246,6.9,6.9,93,0.00,,,0.00,0.00,VWS V14.01,2013-10-16 11:39:00,
2013-10-16 06:40:00,44.8,42.9,29.90,WSW,241,3.4,6.9,93,0.00,,,0.00,0.00,VWS V14.01,2013-10-16 11:40:00,
2013-10-16 06:44:00,44.9,43.0,29.90,WSW,246,4.6,9.2,93,0.00,,,0.00,0.00,VWS V14.01,2013-10-16 11:44:00,
2013-10-16 06:45:00,45.0,43.1,29.90,WSW,245,3.4,9.2,93,0.00,,,0.00,0.00,VWS V14.01,2013-10-16 11:45:00,
2013-10-16 06:47:00,45.0,43.1,29.90,SW,230,5.8,6.9,93,0.00,,,0.00,0.00,VWS V14.01,2013-10-16 11:47:00,
2013-10-16 06:50:00,45.1,43.2,29.90,SW,227,4.6,6.9,93,0.00,,,0.00,0.00,VWS V14.01,2013-10-16 11:50:00,
2013-10-16 06:51:00,45.1,43.2,29.90,WSW,245,1.1,5.8,93,0.00,,,0.00,0.00,VWS V14.01,2013-10-16 11:51:00,
2013-10-16 06:53:00,45.2,43.3,29.90,SW,229,0.0,5.8,93,0.00,,,0.00,0.00,VWS V14.01,2013-10-16 11:53:00,
2013-10-16 06:54:00,45.2,43.3,29.90,SW,234,5.8,8.1,93,0.00,,,0.00,0.00,VWS V14.01,2013-10-16 11:54:00,
2013-10-16 06:55:00,45.2,43.3,29.90,SW,234,5.8,5.8,93,0.00,,,0.00,0.00,VWS V14.01,2013-10-16 11:55:00,
2013-10-16 06:56:00,45.3,43.4,29.90,WSW,247,4.6,5.8,93,0.00,,,0.00,0.00,VWS V14.01,2013-10-16 11:56:00,
2013-10-16 06:58:00,45.3,43.4,29.90,WSW,255,3.4,8.1,93,0.00,,,0.00,0.00,VWS V14.01,2013-10-16 11:58:00,
2013-10-16 07:01:00,45.4,43.5,29.90,WSW,251,5.8,6.9,93,0.00,,,0.00,0.00,VWS V14.01,2013-10-16 12:01:00,
2013-10-16 07:02:00,45.4,43.5,29.90,SW,236,4.6,6.9,93,0.00,,,0.00,0.00,VWS V14.01,2013-10-16 12:02:00,
2013-10-16 07:03:00,45.5,43.6,29.90,WSW,237,3.4,6.9,93,0.00,,,0.00,0.00,VWS V14.01,2013-10-16 12:03:00,
2013-10-16 07:04:00,45.5,43.6,29.90,SW,235,1.1,6.9,93,0.00,,,0.00,0.00,VWS V14.01,2013-10-16 12:04:00,
2013-10-16 07:07:00,45.5,43.6,29.90,WSW,250,3.4,8.1,93,0.00,,,0.00,0.00,VWS V14.01,2013-10-16 12:07:00,
2013-10-16 07:08:00,45.6,43.7,29.90,WSW,252,2.3,8.1,93,0.00,,,0.00,0.00,VWS V14.01,2013-10-16 12:08:00,
2013-10-16 07:09:00,45.6,43.7,29.90,WSW,244,6.9,10.3,93,0.00,,,0.00,0.00,VWS V14.01,2013-10-16 12:09:00,
2013-10-16 07:10:00,45.6,43.7,29.90,SW,235,2.3,10.3,93,0.00,,,0.00,0.00,VWS V14.01,2013-10-16 12:10:00,
2013-10-16 07:11:00,45.6,43.7,29.90,SW,235,2.3,2.3,93,0.00,,,0.00,0.00,VWS V14.01,2013-10-16 12:11:00,
2013-10-16 07:12:00,45.6,43.7,29.91,WSW,246,3.4,6.9,93,0.00,,,0.00,0.00,VWS V14.01,2013-10-16 12:12:00,
2013-10-16 07:13:00,45.7,43.8,29.91,SW,230,4.6,6.9,93,0.00,,,0.00,0.00,VWS V14.01,2013-10-16 12:13:00,
2013-10-16 07:15:00,45.7,43.8,29.91,WSW,250,4.6,6.9,93,0.00,,,0.00,0.00,VWS V14.01,2013-10-16 12:15:00,
2013-10-16 07:17:00,45.7,43.8,29.91,SW,235,4.6,6.9,93,0.00,,,0.00,0.00,VWS V14.01,2013-10-16 12:17:00,
2013-10-16 07:18:00,45.8,43.9,29.91,WSW,243,6.9,6.9,93,0.00,,,0.00,0.00,VWS V14.01,2013-10-16 12:18:00,
2013-10-16 07:19:00,45.8,43.9,29.91,WSW,257,5.8,6.9,93,0.00,,,0.00,0.00,VWS V14.01,2013-10-16 12:19:00,
2013-10-16 07:20:00,45.8,43.9,29.91,WSW,243,4.6,6.9,93,0.00,,,0.00,5.00,VWS V14.01,2013-10-16 12:20:00,
2013-10-16 07:21:00,45.9,44.0,29.91,WSW,244,4.6,4.6,93,0.00,,,0.00,5.00,VWS V14.01,2013-10-16 12:21:00,
2013-10-16 07:23:00,45.9,44.0,29.91,WSW,248,2.3,6.9,93,0.00,,,0.00,5.00,VWS V14.01,2013-10-16 12:23:00,
2013-10-16 07:24:00,45.9,44.0,29.91,WSW,255,4.6,6.9,93,0.00,,,0.00,5.00,VWS V14.01,2013-10-16 12:24:00,
2013-10-16 07:25:00,46.0,44.1,29.91,SW,230,1.1,6.9,93,0.00,,,0.00,5.00,VWS V14.01,2013-10-16 12:25:00,
2013-10-16 07:26:00,46.0,44.1,29.91,WSW,238,2.3,5.8,93,0.00,,,0.00,5.00,VWS V14.01,2013-10-16 12:26:00,
2013-10-16 07:27:00,46.0,44.1,29.91,SW,223,5.8,8.1,93,0.00,,,0.00,5.00,VWS V14.01,2013-10-16 12:27:00,
2013-10-16 07:28:00,46.0,44.1,29.91,SW,224,8.1,8.1,93,0.00,,,0.00,5.00,VWS V14.01,2013-10-16 12:28:00,
2013-10-16 07:29:00,46.0,44.1,29.91,SW,229,1.1,8.1,93,0.00,,,0.00,7.00,VWS V14.01,2013-10-16 12:29:00,
2013-10-16 07:30:00,46.1,44.2,29.91,SW,229,2.3,3.4,93,0.00,,,0.00,7.00,VWS V14.01,2013-10-16 12:30:00,
2013-10-16 07:31:00,46.1,44.2,29.91,SW,229,1.1,3.4,93,0.00,,,0.00,7.00,VWS V14.01,2013-10-16 12:31:00,
2013-10-16 07:33:00,46.1,44.2,29.91,WSW,248,5.8,8.1,93,0.00,,,0.00,7.00,VWS V14.01,2013-10-16 12:33:00,
2013-10-16 07:34:00,46.1,44.2,29.92,SW,217,6.9,8.1,93,0.00,,,0.00,9.00,VWS V14.01,2013-10-16 12:34:00,
2013-10-16 07:35:00,46.2,44.3,29.91,SW,228,5.8,5.8,93,0.00,,,0.00,9.00,VWS V14.01,2013-10-16 12:35:00,
2013-10-16 07:36:00,46.2,44.3,29.91,WSW,244,8.1,8.1,93,0.00,,,0.00,11.00,VWS V14.01,2013-10-16 12:36:00,
2013-10-16 07:38:00,46.3,44.4,29.91,SW,235,4.6,8.1,93,0.00,,,0.00,12.00,VWS V14.01,2013-10-16 12:38:00,
2013-10-16 07:39:00,46.3,44.4,29.91,SW,223,3.4,8.1,93,0.00,,,0.00,12.00,VWS V14.01,2013-10-16 12:39:00,
2013-10-16 07:41:00,46.3,44.4,29.91,West,263,3.4,5.8,93,0.00,,,0.00,14.00,VWS V14.01,2013-10-16 12:41:00,
2013-10-16 07:42:00,46.3,44.4,29.91,WSW,254,6.9,9.2,93,0.00,,,0.00,14.00,VWS V14.01,2013-10-16 12:42:00,
2013-10-16 07:43:00,46.4,44.5,29.91,WSW,257,4.6,9.2,93,0.00,,,0.00,14.00,VWS V14.01,2013-10-16 12:43:00,
2013-10-16 07:44:00,46.4,44.5,29.91,WSW,249,3.4,9.2,93,0.00,,,0.00,14.00,VWS V14.01,2013-10-16 12:44:00,
2013-10-16 07:46:00,46.4,44.5,29.91,WSW,250,5.8,5.8,93,0.00,,,0.00,16.00,VWS V14.01,2013-10-16 12:46:00,
2013-10-16 07:48:00,46.5,44.6,29.91,SW,228,3.4,5.8,93,0.00,,,0.00,16.00,VWS V14.01,2013-10-16 12:48:00,
2013-10-16 07:49:00,46.5,44.6,29.91,SW,234,4.6,5.8,93,0.00,,,0.00,16.00,VWS V14.01,2013-10-16 12:49:00,
2013-10-16 07:52:00,46.5,44.6,29.91,WSW,237,0.0,6.9,93,0.00,,,0.00,16.00,VWS V14.01,2013-10-16 12:52:00,
2013-10-16 07:53:00,46.6,44.7,29.91,WSW,257,8.1,8.1,93,0.00,,,0.00,18.00,VWS V14.01,2013-10-16 12:53:00,
2013-10-16 07:54:00,46.6,44.7,29.91,WSW,257,2.3,8.1,93,0.00,,,0.00,19.00,VWS V14.01,2013-10-16 12:54:00,
2013-10-16 07:55:00,46.6,44.7,29.91,SW,232,4.6,8.1,93,0.00,,,0.00,19.00,VWS V14.01,2013-10-16 12:55:00,
2013-10-16 07:57:00,46.7,44.8,29.92,WSW,246,4.6,8.1,93,0.00,,,0.00,21.00,VWS V14.01,2013-10-16 12:57:00,
2013-10-16 07:58:00,46.7,44.8,29.92,WSW,240,4.6,8.1,93,0.00,,,0.00,21.00,VWS V14.01,2013-10-16 12:58:00,
2013-10-16 07:59:00,46.8,44.9,29.92,WSW,250,8.1,8.1,93,0.00,,,0.00,23.00,VWS V14.01,2013-10-16 12:59:00,
2013-10-16 08:00:00,46.7,44.8,29.92,WSW,258,2.3,8.1,93,0.00,,,0.00,25.00,VWS V14.01,2013-10-16 13:00:00,
2013-10-16 08:02:00,46.8,44.9,29.91,WSW,238,1.1,8.1,93,0.00,,,0.00,25.00,VWS V14.01,2013-10-16 13:02:00,
2013-10-16 08:04:00,46.8,44.9,29.92,WSW,238,6.9,8.1,93,0.00,,,0.00,25.00,VWS V14.01,2013-10-16 13:04:00,
2013-10-16 08:05:00,46.9,45.0,29.92,WSW,251,3.4,8.1,93,0.00,,,0.00,25.00,VWS V14.01,2013-10-16 13:05:00,
2013-10-16 08:07:00,46.9,45.0,29.92,WSW,250,2.3,8.1,93,0.00,,,0.00,23.00,VWS V14.01,2013-10-16 13:07:00,
2013-10-16 08:08:00,46.9,45.0,29.92,WSW,248,2.3,8.1,93,0.00,,,0.00,23.00,VWS V14.01,2013-10-16 13:08:00,
2013-10-16 08:09:00,46.9,44.7,29.92,West,273,4.6,8.1,92,0.00,,,0.00,23.00,VWS V14.01,2013-10-16 13:09:00,
2013-10-16 08:10:00,47.0,44.8,29.92,WSW,257,2.3,8.1,92,0.00,,,0.00,25.00,VWS V14.01,2013-10-16 13:10:00,
2013-10-16 08:11:00,47.0,44.8,29.92,WSW,251,3.4,5.8,92,0.00,,,0.00,26.00,VWS V14.01,2013-10-16 13:11:00,
2013-10-16 08:12:00,47.0,44.8,29.92,West,259,5.8,8.1,92,0.00,,,0.00,25.00,VWS V14.01,2013-10-16 13:12:00,
2013-10-16 08:14:00,47.1,44.9,29.92,WSW,250,2.3,9.2,92,0.00,,,0.00,26.00,VWS V14.01,2013-10-16 13:14:00,
2013-10-16 08:15:00,47.1,44.9,29.92,WSW,251,3.4,9.2,92,0.00,,,0.00,28.00,VWS V14.01,2013-10-16 13:15:00,
2013-10-16 08:16:00,47.2,45.0,29.92,WSW,254,5.8,9.2,92,0.00,,,0.00,28.00,VWS V14.01,2013-10-16 13:16:00,
2013-10-16 08:18:00,47.2,45.0,29.92,WNW,286,8.1,11.5,92,0.00,,,0.00,28.00,VWS V14.01,2013-10-16 13:18:00,
2013-10-16 08:19:00,47.3,45.1,29.92,West,263,5.8,12.6,92,0.00,,,0.00,28.00,VWS V14.01,2013-10-16 13:19:00,
2013-10-16 08:20:00,47.3,45.1,29.92,West,262,5.8,12.6,92,0.00,,,0.00,28.00,VWS V14.01,2013-10-16 13:20:00,
2013-10-16 08:21:00,47.4,45.2,29.92,WSW,254,5.8,8.1,92,0.00,,,0.00,28.00,VWS V14.01,2013-10-16 13:21:00,
2013-10-16 08:25:00,47.5,45.0,29.91,West,261,3.4,8.1,91,0.00,,,0.00,30.00,VWS V14.01,2013-10-16 13:25:00,
2013-10-16 08:26:00,47.5,45.3,29.91,West,261,3.4,4.6,92,0.00,,,0.00,30.00,VWS V14.01,2013-10-16 13:26:00,
2013-10-16 08:27:00,47.6,45.4,29.92,West,266,6.9,8.1,92,0.00,,,0.00,32.00,VWS V14.01,2013-10-16 13:27:00,
2013-10-16 08:29:00,47.7,45.2,29.92,WSW,254,6.9,9.2,91,0.00,,,0.00,33.00,VWS V14.01,2013-10-16 13:29:00,
2013-10-16 08:30:00,47.7,45.2,29.92,West,279,5.8,5.8,91,0.00,,,0.00,33.00,VWS V14.01,2013-10-16 13:30:00,
2013-10-16 08:31:00,47.7,45.2,29.92,West,269,2.3,5.8,91,0.00,,,0.00,33.00,VWS V14.01,2013-10-16 13:31:00,
2013-10-16 08:32:00,47.8,45.3,29.92,West,267,4.6,10.3,91,0.00,,,0.00,37.00,VWS V14.01,2013-10-16 13:32:00,
2013-10-16 08:33:00,47.8,45.3,29.92,WSW,250,3.4,10.3,91,0.00,,,0.00,39.00,VWS V14.01,2013-10-16 13:33:00,
2013-10-16 08:35:00,47.8,45.3,29.92,WSW,248,3.4,14.9,91,0.00,,,0.00,37.00,VWS V14.01,2013-10-16 13:35:00,
2013-10-16 08:37:00,47.9,45.4,29.92,WSW,254,5.8,8.1,91,0.00,,,0.00,33.00,VWS V14.01,2013-10-16 13:37:00,
2013-10-16 08:38:00,47.9,45.4,29.92,WSW,257,6.9,8.1,91,0.00,,,0.00,32.00,VWS V14.01,2013-10-16 13:38:00,
2013-10-16 08:40:00,48.0,45.5,29.92,West,260,2.3,8.1,91,0.00,,,0.00,33.00,VWS V14.01,2013-10-16 13:40:00,
2013-10-16 08:42:00,48.1,45.3,29.92,West,277,8.1,10.3,90,0.00,,,0.00,33.00,VWS V14.01,2013-10-16 13:42:00,
2013-10-16 08:43:00,48.1,45.3,29.92,WSW,249,8.1,10.3,90,0.00,,,0.00,33.00,VWS V14.01,2013-10-16 13:43:00,
2013-10-16 08:45:00,48.1,45.3,29.92,West,260,10.3,12.6,90,0.00,,,0.00,33.00,VWS V14.01,2013-10-16 13:45:00,
2013-10-16 08:47:00,48.2,45.4,29.92,West,266,5.8,13.8,90,0.00,,,0.00,37.00,VWS V14.01,2013-10-16 13:47:00,
2013-10-16 08:49:00,48.2,45.4,29.92,WNW,289,4.6,13.8,90,0.00,,,0.00,40.00,VWS V14.01,2013-10-16 13:49:00,
2013-10-16 08:50:00,48.3,45.5,29.92,West,260,6.9,13.8,90,0.00,,,0.00,42.00,VWS V14.01,2013-10-16 13:50:00,
2013-10-16 08:52:00,48.3,45.2,29.92,West,269,3.4,9.2,89,0.00,,,0.00,40.00,VWS V14.01,2013-10-16 13:52:00,
2013-10-16 08:53:00,48.3,45.2,29.92,West,265,8.1,9.2,89,0.00,,,0.00,39.00,VWS V14.01,2013-10-16 13:53:00,
2013-10-16 08:54:00,48.4,45.3,29.92,West,277,9.2,9.2,89,0.00,,,0.00,37.00,VWS V14.01,2013-10-16 13:54:00,
2013-10-16 08:55:00,48.4,45.3,29.92,West,265,4.6,13.8,89,0.00,,,0.00,35.00,VWS V14.01,2013-10-16 13:55:00,
2013-10-16 08:56:00,48.4,45.3,29.92,West,280,8.1,10.3,89,0.00,,,0.00,37.00,VWS V14.01,2013-10-16 13:56:00,
2013-10-16 08:58:00,48.5,45.1,29.92,West,271,1.1,10.3,88,0.00,,,0.00,39.00,VWS V14.01,2013-10-16 13:58:00,
2013-10-16 08:59:00,48.5,45.1,29.92,WSW,251,8.1,10.3,88,0.00,,,0.00,39.00,VWS V14.01,2013-10-16 13:59:00,
2013-10-16 09:00:00,48.5,45.1,29.92,West,263,3.4,10.3,88,0.00,,,0.00,40.00,VWS V14.01,2013-10-16 14:00:00,
2013-10-16 09:01:00,48.5,45.1,29.92,West,279,8.1,8.1,88,0.00,,,0.00,40.00,VWS V14.01,2013-10-16 14:01:00,
2013-10-16 09:02:00,48.6,45.2,29.92,West,264,8.1,10.3,88,0.00,,,0.00,40.00,VWS V14.01,2013-10-16 14:02:00,
2013-10-16 09:03:00,48.6,45.2,29.92,WNW,286,10.3,11.5,88,0.00,,,0.00,47.00,VWS V14.01,2013-10-16 14:03:00,
2013-10-16 09:04:00,48.6,45.2,29.92,WSW,245,5.8,13.8,88,0.00,,,0.00,56.00,VWS V14.01,2013-10-16 14:04:00,
2013-10-16 09:05:00,48.7,45.3,29.92,West,264,10.3,13.8,88,0.00,,,0.00,70.00,VWS V14.01,2013-10-16 14:05:00,
2013-10-16 09:06:00,48.7,45.3,29.92,SW,229,11.5,11.5,88,0.00,,,0.00,81.00,VWS V14.01,2013-10-16 14:06:00,
2013-10-16 09:07:00,48.7,45.3,29.92,WSW,252,8.1,12.6,88,0.00,,,0.00,81.00,VWS V14.01,2013-10-16 14:07:00,
2013-10-16 09:09:00,48.7,45.3,29.92,WSW,251,11.5,14.9,88,0.00,,,0.00,84.00,VWS V14.01,2013-10-16 14:09:00,
2013-10-16 09:11:00,48.8,45.4,29.92,WSW,257,6.9,6.9,88,0.00,,,0.00,93.00,VWS V14.01,2013-10-16 14:11:00,
2013-10-16 09:12:00,48.9,45.5,29.92,WSW,246,9.2,9.2,88,0.00,,,0.00,100.00,VWS V14.01,2013-10-16 14:12:00,
2013-10-16 09:13:00,49.1,45.4,29.92,WSW,252,8.1,11.5,87,0.00,,,0.00,125.00,VWS V14.01,2013-10-16 14:13:00,
2013-10-16 09:15:00,49.3,45.6,29.92,WSW,240,10.3,11.5,87,0.00,,,0.00,130.00,VWS V14.01,2013-10-16 14:15:00,
2013-10-16 09:16:00,49.4,45.7,29.92,WSW,246,9.2,11.5,87,0.00,,,0.00,121.00,VWS V14.01,2013-10-16 14:16:00,
2013-10-16 09:17:00,49.5,45.8,29.92,West,259,4.6,11.5,87,0.00,,,0.00,118.00,VWS V14.01,2013-10-16 14:17:00,
2013-10-16 09:20:00,49.7,46.0,29.92,SW,235,5.8,16.1,87,0.00,,,0.00,151.00,VWS V14.01,2013-10-16 14:20:00,
2013-10-16 09:22:00,49.9,45.9,29.92,WSW,257,6.9,9.2,86,0.00,,,0.00,135.00,VWS V14.01,2013-10-16 14:22:00,
2013-10-16 09:23:00,49.9,45.9,29.92,WSW,240,5.8,9.2,86,0.00,,,0.00,137.00,VWS V14.01,2013-10-16 14:23:00,
2013-10-16 09:25:00,50.0,46.0,29.92,WSW,247,14.9,14.9,86,0.00,,,0.00,149.00,VWS V14.01,2013-10-16 14:25:00,
2013-10-16 09:26:00,50.0,46.0,29.92,WSW,243,5.8,14.9,86,0.00,,,0.00,163.00,VWS V14.01,2013-10-16 14:26:00,
2013-10-16 09:27:00,50.0,46.0,29.92,West,279,6.9,14.9,86,0.00,,,0.00,181.00,VWS V14.01,2013-10-16 14:27:00,
2013-10-16 09:28:00,50.1,45.8,29.92,WSW,256,5.8,14.9,85,0.00,,,0.00,183.00,VWS V14.01,2013-10-16 14:28:00,
2013-10-16 09:30:00,50.2,45.9,29.92,SW,233,16.1,19.5,85,0.00,,,0.00,193.00,VWS V14.01,2013-10-16 14:30:00,
2013-10-16 09:31:00,50.2,45.9,29.92,WSW,255,14.9,19.5,85,0.00,,,0.00,195.00,VWS V14.01,2013-10-16 14:31:00,
2013-10-16 09:32:00,50.3,46.0,29.92,West,261,10.3,19.5,85,0.00,,,0.00,206.00,VWS V14.01,2013-10-16 14:32:00,
2013-10-16 09:34:00,50.4,46.1,29.92,West,271,6.9,19.5,85,0.00,,,0.00,220.00,VWS V14.01,2013-10-16 14:34:00,
2013-10-16 09:36:00,50.5,46.2,29.92,West,264,11.5,11.5,85,0.00,,,0.00,218.00,VWS V14.01,2013-10-16 14:36:00,
2013-10-16 09:39:00,50.6,46.0,29.92,SW,226,10.3,19.5,84,0.00,,,0.00,204.00,VWS V14.01,2013-10-16 14:39:00,
2013-10-16 09:40:00,50.6,46.0,29.92,WSW,253,9.2,19.5,84,0.00,,,0.00,251.00,VWS V14.01,2013-10-16 14:40:00,
2013-10-16 09:41:00,50.7,46.0,29.92,WSW,244,9.2,12.6,84,0.00,,,0.00,237.00,VWS V14.01,2013-10-16 14:41:00,
2013-10-16 09:42:00,50.7,46.0,29.92,WSW,252,8.1,12.6,84,0.00,,,0.00,237.00,VWS V14.01,2013-10-16 14:42:00,
2013-10-16 09:44:00,51.0,46.3,29.92,WSW,258,8.1,12.6,84,0.00,,,0.00,206.00,VWS V14.01,2013-10-16 14:44:00,
2013-10-16 09:45:00,51.1,46.4,29.92,SSW,211,8.1,12.6,84,0.00,,,0.00,206.00,VWS V14.01,2013-10-16 14:45:00,
2013-10-16 09:46:00,51.2,46.5,29.92,WSW,252,8.1,12.6,84,0.00,,,0.00,192.00,VWS V14.01,2013-10-16 14:46:00,
2013-10-16 09:47:00,51.2,46.2,29.92,WSW,258,10.3,12.6,83,0.00,,,0.00,202.00,VWS V14.01,2013-10-16 14:47:00,
2013-10-16 09:48:00,51.3,46.6,29.92,WSW,251,14.9,14.9,84,0.00,,,0.00,218.00,VWS V14.01,2013-10-16 14:48:00,
2013-10-16 09:50:00,51.4,46.4,29.92,West,277,10.3,17.2,83,0.00,,,0.00,264.00,VWS V14.01,2013-10-16 14:50:00,
2013-10-16 09:52:00,51.4,46.1,29.92,WSW,256,8.1,16.1,82,0.00,,,0.00,239.00,VWS V14.01,2013-10-16 14:52:00,
2013-10-16 09:53:00,51.5,46.8,29.92,WSW,252,8.1,16.1,84,0.00,,,0.00,239.00,VWS V14.01,2013-10-16 14:53:00,
2013-10-16 09:54:00,51.5,46.2,29.92,WSW,249,14.9,16.1,82,0.00,,,0.00,236.00,VWS V14.01,2013-10-16 14:54:00,
2013-10-16 09:55:00,51.6,46.6,29.92,WSW,248,12.6,12.6,83,0.00,,,0.00,220.00,VWS V14.01,2013-10-16 14:55:00,
2013-10-16 09:58:00,51.6,46.6,29.93,WSW,254,9.2,12.6,83,0.00,,,0.00,156.00,VWS V14.01,2013-10-16 14:58:00,
2013-10-16 09:59:00,51.6,46.6,29.93,WSW,256,12.6,14.9,83,0.00,,,0.00,149.00,VWS V14.01,2013-10-16 14:59:00,
2013-10-16 10:00:00,51.6,46.6,29.93,WSW,252,12.6,12.6,83,0.00,,,0.00,130.00,VWS V14.01,2013-10-16 15:00:00,
2013-10-16 10:04:00,51.5,46.5,29.93,WSW,254,14.9,16.1,83,0.00,,,0.00,114.00,VWS V14.01,2013-10-16 15:04:00,
2013-10-16 10:05:00,51.5,46.5,29.93,West,263,9.2,16.1,83,0.00,,,0.00,109.00,VWS V14.01,2013-10-16 15:05:00,
2013-10-16 10:06:00,51.5,46.8,29.93,West,277,9.2,14.9,84,0.00,,,0.00,114.00,VWS V14.01,2013-10-16 15:06:00,
2013-10-16 10:09:00,51.4,46.1,29.93,West,263,6.9,17.2,82,0.00,,,0.00,100.00,VWS V14.01,2013-10-16 15:09:00,
2013-10-16 10:10:00,51.4,46.1,29.93,SW,232,11.5,17.2,82,0.00,,,0.00,102.00,VWS V14.01,2013-10-16 15:10:00,
2013-10-16 10:11:00,51.3,46.0,29.93,SW,219,14.9,14.9,82,0.00,,,0.00,105.00,VWS V14.01,2013-10-16 15:11:00,
2013-10-16 10:15:00,51.2,46.2,29.93,West,274,13.8,16.1,83,0.00,,,0.00,100.00,VWS V14.01,2013-10-16 15:15:00,
2013-10-16 10:17:00,51.2,46.2,29.93,West,267,14.9,18.4,83,0.00,,,0.00,109.00,VWS V14.01,2013-10-16 15:17:00,
2013-10-16 10:21:00,51.0,45.7,29.93,WNW,299,10.3,16.1,82,0.00,,,0.00,107.00,VWS V14.01,2013-10-16 15:21:00,
2013-10-16 10:22:00,51.0,45.7,29.93,West,267,8.1,16.1,82,0.00,,,0.00,107.00,VWS V14.01,2013-10-16 15:22:00,
2013-10-16 10:24:00,51.0,45.7,29.93,West,276,14.9,16.1,82,0.00,,,0.00,118.00,VWS V14.01,2013-10-16 15:24:00,
2013-10-16 10:26:00,51.0,45.7,29.93,West,277,12.6,16.1,82,0.00,,,0.00,111.00,VWS V14.01,2013-10-16 15:26:00,
2013-10-16 10:27:00,51.0,45.7,29.93,WSW,257,9.2,16.1,82,0.00,,,0.00,111.00,VWS V14.01,2013-10-16 15:27:00,
2013-10-16 10:30:00,50.9,45.6,29.93,West,275,14.9,18.4,82,0.00,,,0.00,107.00,VWS V14.01,2013-10-16 15:30:00,
2013-10-16 10:31:00,50.9,45.6,29.93,West,266,16.1,16.1,82,0.00,,,0.00,107.00,VWS V14.01,2013-10-16 15:31:00,
2013-10-16 10:32:00,50.9,45.6,29.93,West,268,11.5,16.1,82,0.00,,,0.00,109.00,VWS V14.01,2013-10-16 15:32:00,
2013-10-16 10:33:00,51.0,45.7,29.93,West,273,14.9,16.1,82,0.00,,,0.00,120.00,VWS V14.01,2013-10-16 15:33:00,
2013-10-16 10:34:00,51.0,45.7,29.93,WSW,252,13.8,18.4,82,0.00,,,0.00,135.00,VWS V14.01,2013-10-16 15:34:00,
2013-10-16 10:35:00,51.0,46.0,29.93,West,270,11.5,11.5,83,0.00,,,0.00,142.00,VWS V14.01,2013-10-16 15:35:00,
2013-10-16 10:37:00,51.1,45.8,29.93,West,279,8.1,13.8,82,0.00,,,0.00,132.00,VWS V14.01,2013-10-16 15:37:00,
2013-10-16 10:38:00,51.1,45.8,29.93,WSW,250,8.1,16.1,82,0.00,,,0.00,132.00,VWS V14.01,2013-10-16 15:38:00,
2013-10-16 10:40:00,51.2,46.2,29.93,West,269,5.8,17.2,83,0.00,,,0.00,141.00,VWS V14.01,2013-10-16 15:40:00,
2013-10-16 10:43:00,51.2,45.6,29.93,West,270,9.2,19.5,81,0.00,,,0.00,155.00,VWS V14.01,2013-10-16 15:43:00,
2013-10-16 10:44:00,51.2,45.6,29.93,WSW,245,11.5,19.5,81,0.00,,,0.00,153.00,VWS V14.01,2013-10-16 15:44:00,
2013-10-16 10:45:00,51.2,45.9,29.93,WSW,251,13.8,19.5,82,0.00,,,0.00,153.00,VWS V14.01,2013-10-16 15:45:00,
2013-10-16 10:47:00,51.3,46.0,29.93,WSW,247,9.2,12.6,82,0.00,,,0.00,155.00,VWS V14.01,2013-10-16 15:47:00,
2013-10-16 10:48:00,51.4,46.1,29.93,WSW,258,6.9,12.6,82,0.00,,,0.00,148.00,VWS V14.01,2013-10-16 15:48:00,
2013-10-16 10:49:00,51.4,46.1,29.94,WSW,257,10.3,12.6,82,0.00,,,0.00,142.00,VWS V14.01,2013-10-16 15:49:00,
2013-10-16 10:50:00,51.5,46.2,29.93,WSW,257,6.9,12.6,82,0.00,,,0.00,146.00,VWS V14.01,2013-10-16 15:50:00,
2013-10-16 10:51:00,51.5,46.2,29.93,WSW,242,11.5,13.8,82,0.00,,,0.00,169.00,VWS V14.01,2013-10-16 15:51:00,
2013-10-16 10:53:00,51.5,46.2,29.93,WSW,257,9.2,13.8,82,0.00,,,0.00,176.00,VWS V14.01,2013-10-16 15:53:00,
2013-10-16 10:54:00,51.6,46.3,29.93,WSW,242,13.8,17.2,82,0.00,,,0.00,197.00,VWS V14.01,2013-10-16 15:54:00,
2013-10-16 10:55:00,51.6,46.3,29.93,West,263,16.1,17.2,82,0.00,,,0.00,209.00,VWS V14.01,2013-10-16 15:55:00,
2013-10-16 10:56:00,51.7,46.4,29.93,West,277,10.3,16.1,82,0.00,,,0.00,216.00,VWS V14.01,2013-10-16 15:56:00,
2013-10-16 10:59:00,51.7,46.1,29.93,West,265,14.9,16.1,81,0.00,,,0.00,234.00,VWS V14.01,2013-10-16 15:59:00,
2013-10-16 11:00:00,51.7,46.1,29.93,WSW,244,14.9,16.1,81,0.00,,,0.00,234.00,VWS V14.01,2013-10-16 16:00:00,
2013-10-16 11:01:00,51.8,46.2,29.93,WSW,248,10.3,14.9,81,0.00,,,0.00,236.00,VWS V14.01,2013-10-16 16:01:00,
2013-10-16 11:03:00,51.9,46.3,29.93,West,272,8.1,14.9,81,0.00,,,0.00,234.00,VWS V14.01,2013-10-16 16:03:00,
2013-10-16 11:05:00,52.1,46.5,29.94,WSW,240,11.5,14.9,81,0.00,,,0.00,213.00,VWS V14.01,2013-10-16 16:05:00,
2013-10-16 11:06:00,52.1,46.5,29.93,WSW,248,17.2,17.2,81,0.00,,,0.00,218.00,VWS V14.01,2013-10-16 16:06:00,
2013-10-16 11:07:00,52.2,46.5,29.94,SW,222,8.1,17.2,81,0.00,,,0.00,206.00,VWS V14.01,2013-10-16 16:07:00,
2013-10-16 11:08:00,52.2,46.2,29.94,SW,219,8.1,17.2,80,0.00,,,0.00,206.00,VWS V14.01,2013-10-16 16:08:00,
2013-10-16 11:10:00,52.3,46.3,29.94,WNW,288,10.3,17.2,80,0.00,,,0.00,179.00,VWS V14.01,2013-10-16 16:10:00,
2013-10-16 11:11:00,52.3,46.3,29.94,SW,232,9.2,12.6,80,0.00,,,0.00,172.00,VWS V14.01,2013-10-16 16:11:00,
2013-10-16 11:12:00,52.3,46.3,29.94,WSW,254,10.3,12.6,80,0.00,,,0.00,179.00,VWS V14.01,2013-10-16 16:12:00,
2013-10-16 11:13:00,52.3,46.3,29.94,WSW,257,11.5,12.6,80,0.00,,,0.00,185.00,VWS V14.01,2013-10-16 16:13:00,
2013-10-16 11:14:00,52.2,45.9,29.94,West,276,12.6,14.9,79,0.00,,,0.00,167.00,VWS V14.01,2013-10-16 16:14:00,
2013-10-16 11:15:00,52.1,46.1,29.94,West,280,8.1,8.1,80,0.00,,,0.00,162.00,VWS V14.01,2013-10-16 16:15:00,
2013-10-16 11:16:00,52.1,46.1,29.94,WNW,286,11.5,11.5,80,0.00,,,0.00,158.00,VWS V14.01,2013-10-16 16:16:00,
2013-10-16 11:17:00,52.1,46.1,29.94,WSW,253,14.9,14.9,80,0.00,,,0.00,156.00,VWS V14.01,2013-10-16 16:17:00,
2013-10-16 11:18:00,52.1,46.1,29.94,West,267,14.9,17.2,80,0.00,,,0.00,153.00,VWS V14.01,2013-10-16 16:18:00,
2013-10-16 11:19:00,52.1,46.1,29.94,West,263,9.2,17.2,80,0.00,,,0.00,153.00,VWS V14.01,2013-10-16 16:19:00,
2013-10-16 11:20:00,52.1,45.8,29.94,West,277,18.4,18.4,79,0.00,,,0.00,156.00,VWS V14.01,2013-10-16 16:20:00,
2013-10-16 11:21:00,52.1,46.1,29.94,West,267,10.3,13.8,80,0.00,,,0.00,163.00,VWS V14.01,2013-10-16 16:21:00,
2013-10-16 11:22:00,52.0,46.0,29.94,WNW,285,10.3,13.8,80,0.00,,,0.00,172.00,VWS V14.01,2013-10-16 16:22:00,
2013-10-16 11:23:00,52.0,45.7,29.94,West,259,9.2,17.2,79,0.00,,,0.00,163.00,VWS V14.01,2013-10-16 16:23:00,
2013-10-16 11:24:00,52.0,45.7,29.94,West,263,13.8,18.4,79,0.00,,,0.00,163.00,VWS V14.01,2013-10-16 16:24:00,
2013-10-16 11:25:00,52.0,46.0,29.94,WSW,253,13.8,18.4,80,0.00,,,0.00,148.00,VWS V14.01,2013-10-16 16:25:00,
2013-10-16 11:26:00,52.0,46.0,29.94,West,262,8.1,11.5,80,0.00,,,0.00,135.00,VWS V14.01,2013-10-16 16:26:00,
2013-10-16 11:27:00,52.0,46.0,29.94,West,270,8.1,11.5,80,0.00,,,0.00,135.00,VWS V14.01,2013-10-16 16:27:00,
2013-10-16 11:29:00,52.1,46.1,29.94,West,276,8.1,13.8,80,0.00,,,0.00,135.00,VWS V14.01,2013-10-16 16:29:00,
2013-10-16 11:30:00,52.1,46.5,29.94,WNW,283,12.6,14.9,81,0.00,,,0.00,139.00,VWS V14.01,2013-10-16 16:30:00,
2013-10-16 11:32:00,52.1,46.1,29.94,West,277,10.3,14.9,80,0.00,,,0.00,134.00,VWS V14.01,2013-10-16 16:32:00,
2013-10-16 11:35:00,52.0,46.0,29.94,West,259,17.2,17.2,80,0.00,,,0.00,149.00,VWS V14.01,2013-10-16 16:35:00,
2013-10-16 11:36:00,52.0,46.0,29.94,WSW,255,16.1,17.2,80,0.00,,,0.00,142.00,VWS V14.01,2013-10-16 16:36:00,
2013-10-16 11:37:00,52.0,46.0,29.94,West,277,17.2,17.2,80,0.00,,,0.00,137.00,VWS V14.01,2013-10-16 16:37:00,
2013-10-16 11:38:00,52.0,46.0,29.94,WNW,284,10.3,17.2,80,0.00,,,0.00,137.00,VWS V14.01,2013-10-16 16:38:00,
2013-10-16 11:40:00,52.0,46.0,29.94,WSW,247,13.8,17.2,80,0.00,,,0.00,148.00,VWS V14.01,2013-10-16 16:40:00,
2013-10-16 11:42:00,52.1,46.1,29.94,West,271,10.3,14.9,80,0.00,,,0.00,141.00,VWS V14.01,2013-10-16 16:42:00,
2013-10-16 11:43:00,52.1,46.1,29.94,West,263,11.5,14.9,80,0.00,,,0.00,141.00,VWS V14.01,2013-10-16 16:43:00,
2013-10-16 11:44:00,52.1,45.8,29.94,WSW,254,12.6,14.9,79,0.00,,,0.00,141.00,VWS V14.01,2013-10-16 16:44:00,
2013-10-16 11:45:00,52.1,45.8,29.94,West,265,4.6,14.9,79,0.00,,,0.00,139.00,VWS V14.01,2013-10-16 16:45:00,
2013-10-16 11:47:00,52.1,46.1,29.95,West,262,6.9,12.6,80,0.00,,,0.00,135.00,VWS V14.01,2013-10-16 16:47:00,
2013-10-16 11:48:00,52.1,46.1,29.95,West,277,12.6,16.1,80,0.00,,,0.00,134.00,VWS V14.01,2013-10-16 16:48:00,
2013-10-16 11:49:00,52.1,45.8,29.94,West,271,5.8,16.1,79,0.00,,,0.00,153.00,VWS V14.01,2013-10-16 16:49:00,
2013-10-16 11:53:00,52.2,45.9,29.94,WSW,253,8.1,12.6,79,0.00,,,0.00,169.00,VWS V14.01,2013-10-16 16:53:00,
2013-10-16 11:54:00,52.3,46.3,29.94,WNW,298,9.2,13.8,80,0.00,,,0.00,171.00,VWS V14.01,2013-10-16 16:54:00,
2013-10-16 11:55:00,52.4,46.4,29.94,WSW,254,13.8,14.9,80,0.00,,,0.00,174.00,VWS V14.01,2013-10-16 16:55:00,
2013-10-16 11:59:00,52.5,46.5,29.94,West,266,13.8,14.9,80,0.00,,,0.00,186.00,VWS V14.01,2013-10-16 16:59:00,
2013-10-16 12:00:00,52.6,46.6,29.94,WNW,288,10.3,19.5,80,0.00,,,0.00,188.00,VWS V14.01,2013-10-16 17:00:00,
2013-10-16 12:01:00,52.6,46.3,29.94,West,268,13.8,18.4,79,0.00,,,0.00,172.00,VWS V14.01,2013-10-16 17:01:00,
2013-10-16 12:03:00,52.6,46.3,29.94,West,269,12.6,18.4,79,0.00,,,0.00,185.00,VWS V14.01,2013-10-16 17:03:00,
2013-10-16 12:04:00,52.6,46.3,29.94,West,277,8.1,18.4,79,0.00,,,0.00,190.00,VWS V14.01,2013-10-16 17:04:00,
2013-10-16 12:05:00,52.6,46.3,29.94,WNW,295,8.1,18.4,79,0.00,,,0.00,188.00,VWS V14.01,2013-10-16 17:05:00,
2013-10-16 12:07:00,52.7,46.4,29.94,WSW,254,10.3,16.1,79,0.00,,,0.00,165.00,VWS V14.01,2013-10-16 17:07:00,
2013-10-16 12:08:00,52.7,47.0,29.94,WSW,257,6.9,16.1,81,0.00,,,0.00,158.00,VWS V14.01,2013-10-16 17:08:00,
2013-10-16 12:10:00,52.8,46.8,29.94,WSW,248,10.3,16.1,80,0.00,,,0.00,144.00,VWS V14.01,2013-10-16 17:10:00,
2013-10-16 12:13:00,52.8,46.1,29.94,WSW,250,6.9,13.8,78,0.00,,,0.00,148.00,VWS V14.01,2013-10-16 17:13:00,
2013-10-16 12:14:00,52.7,46.0,29.94,SW,236,13.8,16.1,78,0.00,,,0.00,156.00,VWS V14.01,2013-10-16 17:14:00,
2013-10-16 12:15:00,52.7,46.0,29.94,West,271,10.3,16.1,78,0.00,,,0.00,158.00,VWS V14.01,2013-10-16 17:15:00,
2013-10-16 12:16:00,52.6,46.0,29.94,West,280,11.5,13.8,78,0.00,,,0.00,156.00,VWS V14.01,2013-10-16 17:16:00,
2013-10-16 12:19:00,52.5,45.8,29.94,West,274,5.8,13.8,78,0.00,,,0.00,156.00,VWS V14.01,2013-10-16 17:19:00,
2013-10-16 12:20:00,52.5,46.2,29.94,WNW,284,9.2,13.8,79,0.00,,,0.00,169.00,VWS V14.01,2013-10-16 17:20:00,
2013-10-16 12:21:00,52.6,46.3,29.94,West,260,13.8,17.2,79,0.00,,,0.00,176.00,VWS V14.01,2013-10-16 17:21:00,
2013-10-16 12:22:00,52.6,46.3,29.94,West,261,13.8,17.2,79,0.00,,,0.00,179.00,VWS V14.01,2013-10-16 17:22:00,
2013-10-16 12:25:00,52.7,46.0,29.94,West,263,9.2,17.2,78,0.00,,,0.00,172.00,VWS V14.01,2013-10-16 17:25:00,
2013-10-16 12:26:00,52.7,46.0,29.94,SW,227,8.1,14.9,78,0.00,,,0.00,167.00,VWS V14.01,2013-10-16 17:26:00,
2013-10-16 12:29:00,52.8,46.1,29.94,WSW,252,13.8,14.9,78,0.00,,,0.00,158.00,VWS V14.01,2013-10-16 17:29:00,
2013-10-16 12:30:00,52.8,46.1,29.94,West,266,8.1,14.9,78,0.00,,,0.00,155.00,VWS V14.01,2013-10-16 17:30:00,
2013-10-16 12:31:00,52.8,46.1,29.94,West,275,12.6,16.1,78,0.00,,,0.00,155.00,VWS V14.01,2013-10-16 17:31:00,
2013-10-16 12:34:00,52.8,46.1,29.94,West,266,12.6,16.1,78,0.00,,,0.00,148.00,VWS V14.01,2013-10-16 17:34:00,
2013-10-16 12:35:00,52.8,46.1,29.94,WSW,249,14.9,16.1,78,0.00,,,0.00,144.00,VWS V14.01,2013-10-16 17:35:00,
2013-10-16 12:36:00,52.8,46.1,29.93,SW,236,13.8,16.1,78,0.00,,,0.00,142.00,VWS V14.01,2013-10-16 17:36:00,
2013-10-16 12:38:00,52.8,46.1,29.94,WSW,256,9.2,20.7,78,0.00,,,0.00,146.00,VWS V14.01,2013-10-16 17:38:00,
2013-10-16 12:39:00,52.8,46.1,29.94,WNW,286,9.2,20.7,78,0.00,,,0.00,151.00,VWS V14.01,2013-10-16 17:39:00,
2013-10-16 12:40:00,52.8,46.1,29.94,WSW,257,13.8,20.7,78,0.00,,,0.00,158.00,VWS V14.01,2013-10-16 17:40:00,
2013-10-16 12:41:00,52.8,46.1,29.93,WSW,252,13.8,13.8,78,0.00,,,0.00,162.00,VWS V14.01,2013-10-16 17:41:00,
2013-10-16 12:43:00,52.9,46.2,29.93,WSW,246,9.2,16.1,78,0.00,,,0.00,165.00,VWS V14.01,2013-10-16 17:43:00,
2013-10-16 12:44:00,53.0,46.3,29.94,WSW,238,16.1,16.1,78,0.00,,,0.00,158.00,VWS V14.01,2013-10-16 17:44:00,
2013-10-16 12:45:00,53.0,46.3,29.94,WSW,249,16.1,17.2,78,0.00,,,0.00,146.00,VWS V14.01,2013-10-16 17:45:00,
2013-10-16 12:46:00,53.0,46.3,29.93,West,275,13.8,14.9,78,0.00,,,0.00,137.00,VWS V14.01,2013-10-16 17:46:00,
2013-10-16 12:48:00,53.1,46.4,29.93,WNW,287,8.1,16.1,78,0.00,,,0.00,128.00,VWS V14.01,2013-10-16 17:48:00,
2013-10-16 12:49:00,53.1,46.4,29.93,West,272,6.9,16.1,78,0.00,,,0.00,123.00,VWS V14.01,2013-10-16 17:49:00,
2013-10-16 12:50:00,53.1,46.4,29.94,WSW,247,14.9,16.1,78,0.00,,,0.00,118.00,VWS V14.01,2013-10-16 17:50:00,
2013-10-16 12:51:00,53.1,46.4,29.93,West,261,20.7,20.7,78,0.00,,,0.00,116.00,VWS V14.01,2013-10-16 17:51:00,
2013-10-16 12:53:00,53.0,46.3,29.93,West,278,3.4,20.7,78,0.00,,,0.00,123.00,VWS V14.01,2013-10-16 17:53:00,
2013-10-16 12:54:00,53.0,46.3,29.93,West,264,13.8,20.7,78,0.00,,,0.00,132.00,VWS V14.01,2013-10-16 17:54:00,
2013-10-16 12:55:00,53.0,46.3,29.93,WNW,297,9.2,20.7,78,0.00,,,0.00,132.00,VWS V14.01,2013-10-16 17:55:00,
2013-10-16 12:56:00,53.0,46.3,29.93,WSW,251,20.7,20.7,78,0.00,,,0.00,132.00,VWS V14.01,2013-10-16 17:56:00,
2013-10-16 12:57:00,53.0,46.3,29.93,WSW,255,9.2,20.7,78,0.00,,,0.00,127.00,VWS V14.01,2013-10-16 17:57:00,
2013-10-16 12:59:00,53.0,46.3,29.93,WSW,244,11.5,20.7,78,0.00,,,0.00,121.00,VWS V14.01,2013-10-16 17:59:00,
2013-10-16 13:00:00,53.0,46.7,29.93,West,265,9.2,20.7,79,0.00,,,0.00,127.00,VWS V14.01,2013-10-16 18:00:00,
2013-10-16 13:01:00,53.0,46.7,29.93,West,279,10.3,14.9,79,0.00,,,0.00,139.00,VWS V14.01,2013-10-16 18:01:00,
2013-10-16 13:02:00,53.0,46.7,29.93,West,272,12.6,14.9,79,0.00,,,0.00,135.00,VWS V14.01,2013-10-16 18:02:00,
2013-10-16 13:03:00,53.0,46.3,29.93,WSW,258,11.5,14.9,78,0.00,,,0.00,132.00,VWS V14.01,2013-10-16 18:03:00,
2013-10-16 13:05:00,53.0,46.3,29.93,West,277,9.2,17.2,78,0.00,,,0.00,132.00,VWS V14.01,2013-10-16 18:05:00,
2013-10-16 13:06:00,53.0,46.3,29.93,West,281,11.5,11.5,78,0.00,,,0.00,127.00,VWS V14.01,2013-10-16 18:06:00,
2013-10-16 13:07:00,52.9,46.2,29.93,West,260,6.9,13.8,78,0.00,,,0.00,121.00,VWS V14.01,2013-10-16 18:07:00,
2013-10-16 13:08:00,53.0,46.3,29.93,WNW,284,9.2,13.8,78,0.00,,,0.00,121.00,VWS V14.01,2013-10-16 18:08:00,
2013-10-16 13:11:00,52.9,46.2,29.93,WNW,284,9.2,9.2,78,0.00,,,0.00,105.00,VWS V14.01,2013-10-16 18:11:00,
2013-10-16 13:12:00,52.9,46.6,29.93,WNW,286,11.5,18.4,79,0.00,,,0.00,104.00,VWS V14.01,2013-10-16 18:12:00,
2013-10-16 13:13:00,52.9,46.6,29.93,West,265,14.9,18.4,79,0.00,,,0.00,102.00,VWS V14.01,2013-10-16 18:13:00,
2013-10-16 13:14:00,52.9,46.2,29.93,WSW,247,9.2,18.4,78,0.00,,,0.00,100.00,VWS V14.01,2013-10-16 18:14:00,
2013-10-16 13:18:00,52.8,46.1,29.93,West,261,10.3,14.9,78,0.00,,,0.00,97.00,VWS V14.01,2013-10-16 18:18:00,
2013-10-16 13:19:00,52.8,46.1,29.93,West,276,9.2,17.2,78,0.00,,,0.00,98.00,VWS V14.01,2013-10-16 18:19:00,
2013-10-16 13:20:00,52.7,46.0,29.93,WSW,250,9.2,9.2,78,0.00,,,0.00,102.00,VWS V14.01,2013-10-16 18:20:00,
2013-10-16 13:22:00,52.7,46.0,29.93,West,278,5.8,10.3,78,0.00,,,0.00,109.00,VWS V14.01,2013-10-16 18:22:00,
2013-10-16 13:23:00,52.7,46.4,29.93,West,273,11.5,13.8,79,0.00,,,0.00,104.00,VWS V14.01,2013-10-16 18:23:00,
2013-10-16 13:24:00,52.7,46.4,29.93,WSW,244,16.1,16.1,79,0.00,,,0.00,104.00,VWS V14.01,2013-10-16 18:24:00,
2013-10-16 13:25:00,52.7,46.4,29.93,WNW,283,10.3,16.1,79,0.00,,,0.00,102.00,VWS V14.01,2013-10-16 18:25:00,
2013-10-16 13:26:00,52.8,46.5,29.93,WSW,252,16.1,16.1,79,0.00,,,0.00,102.00,VWS V14.01,2013-10-16 18:26:00,
2013-10-16 13:28:00,52.7,46.4,29.93,WSW,248,8.1,16.1,79,0.00,,,0.00,102.00,VWS V14.01,2013-10-16 18:28:00,
2013-10-16 13:29:00,52.7,46.0,29.93,West,269,9.2,16.1,78,0.00,,,0.00,105.00,VWS V14.01,2013-10-16 18:29:00,
2013-10-16 13:30:00,52.7,46.0,29.93,West,275,10.3,16.1,78,0.00,,,0.00,105.00,VWS V14.01,2013-10-16 18:30:00,
2013-10-16 13:31:00,52.8,46.1,29.93,West,259,14.9,14.9,78,0.00,,,0.00,100.00,VWS V14.01,2013-10-16 18:31:00,
2013-10-16 13:32:00,52.7,46.4,29.93,WSW,256,12.6,17.2,79,0.00,,,0.00,97.00,VWS V14.01,2013-10-16 18:32:00,
2013-10-16 13:34:00,52.7,46.0,29.93,West,268,12.6,17.2,78,0.00,,,0.00,95.00,VWS V14.01,2013-10-16 18:34:00,
2013-10-16 13:35:00,52.7,46.0,29.93,West,269,10.3,17.2,78,0.00,,,0.00,100.00,VWS V14.01,2013-10-16 18:35:00,
2013-10-16 13:37:00,52.7,46.0,29.93,WSW,242,10.3,11.5,78,0.00,,,0.00,93.00,VWS V14.01,2013-10-16 18:37:00,
2013-10-16 13:38:00,52.7,46.0,29.93,West,280,9.2,11.5,78,0.00,,,0.00,90.00,VWS V14.01,2013-10-16 18:38:00,
2013-10-16 13:39:00,52.6,46.3,29.93,West,275,10.3,11.5,79,0.00,,,0.00,88.00,VWS V14.01,2013-10-16 18:39:00,
2013-10-16 13:40:00,52.7,46.4,29.93,WSW,254,11.5,11.5,79,0.00,,,0.00,90.00,VWS V14.01,2013-10-16 18:40:00,
2013-10-16 13:42:00,52.6,46.3,29.93,WNW,290,8.1,17.2,79,0.00,,,0.00,90.00,VWS V14.01,2013-10-16 18:42:00,
2013-10-16 13:43:00,52.6,46.3,29.93,West,270,8.1,17.2,79,0.00,,,0.00,90.00,VWS V14.01,2013-10-16 18:43:00,
2013-10-16 13:44:00,52.6,46.3,29.93,West,271,9.2,17.2,79,0.00,,,0.00,91.00,VWS V14.01,2013-10-16 18:44:00,
2013-10-16 13:45:00,52.6,46.3,29.93,West,275,8.1,17.2,79,0.00,,,0.00,91.00,VWS V14.01,2013-10-16 18:45:00,
2013-10-16 13:48:00,52.5,46.2,29.93,West,277,17.2,18.4,79,0.00,,,0.00,90.00,VWS V14.01,2013-10-16 18:48:00,
2013-10-16 13:49:00,52.5,46.2,29.93,WSW,254,8.1,18.4,79,0.00,,,0.00,90.00,VWS V14.01,2013-10-16 18:49:00,
2013-10-16 13:50:00,52.5,46.2,29.93,West,273,10.3,10.3,79,0.00,,,0.00,91.00,VWS V14.01,2013-10-16 18:50:00,
2013-10-16 13:51:00,52.5,46.2,29.93,West,269,12.6,12.6,79,0.00,,,0.00,93.00,VWS V14.01,2013-10-16 18:51:00,
2013-10-16 13:53:00,52.5,46.2,29.93,West,267,8.1,12.6,79,0.00,,,0.00,98.00,VWS V14.01,2013-10-16 18:53:00,
2013-10-16 13:54:00,52.5,46.2,29.93,WNW,290,5.8,12.6,79,0.00,,,0.00,98.00,VWS V14.01,2013-10-16 18:54:00,
2013-10-16 13:55:00,52.5,46.2,29.93,WSW,257,10.3,12.6,79,0.00,,,0.00,97.00,VWS V14.01,2013-10-16 18:55:00,
2013-10-16 13:56:00,52.5,46.2,29.93,West,269,14.9,14.9,79,0.00,,,0.00,104.00,VWS V14.01,2013-10-16 18:56:00,
2013-10-16 13:57:00,52.5,46.2,29.93,WNW,299,10.3,14.9,79,0.00,,,0.00,107.00,VWS V14.01,2013-10-16 18:57:00,
2013-10-16 13:59:00,52.5,46.2,29.92,West,272,4.6,14.9,79,0.00,,,0.00,114.00,VWS V14.01,2013-10-16 18:59:00,
2013-10-16 14:00:00,52.5,46.2,29.93,WSW,258,8.1,14.9,79,0.00,,,0.00,120.00,VWS V14.01,2013-10-16 19:00:00,
2013-10-16 14:01:00,52.5,46.2,29.92,West,277,12.6,12.6,79,0.00,,,0.00,135.00,VWS V14.01,2013-10-16 19:01:00,
2013-10-16 14:02:00,52.5,46.2,29.93,WNW,284,5.8,13.8,79,0.00,,,0.00,137.00,VWS V14.01,2013-10-16 19:02:00,
2013-10-16 14:04:00,52.6,46.3,29.92,WNW,282,9.2,14.9,79,0.00,,,0.00,127.00,VWS V14.01,2013-10-16 19:04:00,
2013-10-16 14:05:00,52.6,46.3,29.92,WSW,251,12.6,14.9,79,0.00,,,0.00,123.00,VWS V14.01,2013-10-16 19:05:00,
2013-10-16 14:06:00,52.6,46.3,29.92,WNW,297,11.5,16.1,79,0.00,,,0.00,125.00,VWS V14.01,2013-10-16 19:06:00,
2013-10-16 14:07:00,52.7,46.4,29.93,West,270,11.5,16.1,79,0.00,,,0.00,127.00,VWS V14.01,2013-10-16 19:07:00,
2013-10-16 14:08:00,52.6,46.3,29.93,WSW,257,13.8,16.1,79,0.00,,,0.00,127.00,VWS V14.01,2013-10-16 19:08:00,
2013-10-16 14:09:00,52.7,46.4,29.92,WSW,254,10.3,16.1,79,0.00,,,0.00,134.00,VWS V14.01,2013-10-16 19:09:00,
2013-10-16 14:10:00,52.7,46.4,29.92,West,260,11.5,16.1,79,0.00,,,0.00,155.00,VWS V14.01,2013-10-16 19:10:00,
2013-10-16 14:12:00,52.7,46.7,29.92,West,264,8.1,11.5,80,0.00,,,0.00,174.00,VWS V14.01,2013-10-16 19:12:00,
2013-10-16 14:13:00,52.8,46.8,29.92,West,279,8.1,12.6,80,0.00,,,0.00,176.00,VWS V14.01,2013-10-16 19:13:00,
2013-10-16 14:16:00,53.0,47.0,29.92,WNW,287,8.1,8.1,80,0.00,,,0.00,188.00,VWS V14.01,2013-10-16 19:16:00,
2013-10-16 14:17:00,53.0,46.7,29.92,WNW,296,10.3,11.5,79,0.00,,,0.00,188.00,VWS V14.01,2013-10-16 19:17:00,
2013-10-16 14:18:00,53.0,46.7,29.92,West,259,6.9,16.1,79,0.00,,,0.00,206.00,VWS V14.01,2013-10-16 19:18:00,
2013-10-16 14:23:00,53.3,47.3,29.92,West,275,8.1,12.6,80,0.00,,,0.00,207.00,VWS V14.01,2013-10-16 19:23:00,
2013-10-16 14:24:00,53.3,47.0,29.92,WSW,246,12.6,12.6,79,0.00,,,0.00,200.00,VWS V14.01,2013-10-16 19:24:00,
2013-10-16 14:26:00,53.4,46.7,29.92,WSW,253,6.9,12.6,78,0.00,,,0.00,190.00,VWS V14.01,2013-10-16 19:26:00,
2013-10-16 14:28:00,53.3,46.6,29.92,West,265,11.5,16.1,78,0.00,,,0.00,160.00,VWS V14.01,2013-10-16 19:28:00,
2013-10-16 14:29:00,53.3,46.6,29.92,WNW,286,5.8,16.1,78,0.00,,,0.00,158.00,VWS V14.01,2013-10-16 19:29:00,
2013-10-16 14:31:00,53.3,46.6,29.92,West,274,16.1,16.1,78,0.00,,,0.00,163.00,VWS V14.01,2013-10-16 19:31:00,
2013-10-16 14:34:00,53.3,46.6,29.93,WSW,256,10.3,19.5,78,0.00,,,0.00,153.00,VWS V14.01,2013-10-16 19:34:00,
2013-10-16 14:35:00,53.3,46.6,29.93,WSW,248,10.3,19.5,78,0.00,,,0.00,139.00,VWS V14.01,2013-10-16 19:35:00,
2013-10-16 14:36:00,53.3,46.6,29.93,West,267,9.2,13.8,78,0.00,,,0.00,139.00,VWS V14.01,2013-10-16 19:36:00,
2013-10-16 14:38:00,53.3,46.6,29.93,West,271,16.1,16.1,78,0.00,,,0.00,128.00,VWS V14.01,2013-10-16 19:38:00,
2013-10-16 14:39:00,53.3,46.6,29.93,West,276,10.3,16.1,78,0.00,,,0.00,121.00,VWS V14.01,2013-10-16 19:39:00,
2013-10-16 14:40:00,53.3,46.6,29.93,West,259,10.3,16.1,78,0.00,,,0.00,116.00,VWS V14.01,2013-10-16 19:40:00,
2013-10-16 14:43:00,53.3,46.6,29.93,WSW,248,12.6,17.2,78,0.00,,,0.00,130.00,VWS V14.01,2013-10-16 19:43:00,
2013-10-16 14:44:00,53.3,46.6,29.93,West,274,10.3,17.2,78,0.00,,,0.00,134.00,VWS V14.01,2013-10-16 19:44:00,
2013-10-16 14:45:00,53.3,46.6,29.93,WNW,282,9.2,17.2,78,0.00,,,0.00,132.00,VWS V14.01,2013-10-16 19:45:00,
2013-10-16 14:46:00,53.3,46.6,29.93,West,272,14.9,14.9,78,0.00,,,0.00,125.00,VWS V14.01,2013-10-16 19:46:00,
2013-10-16 14:48:00,53.4,46.7,29.92,WSW,238,9.2,18.4,78,0.00,,,0.00,125.00,VWS V14.01,2013-10-16 19:48:00,
2013-10-16 14:49:00,53.4,47.1,29.92,West,265,14.9,18.4,79,0.00,,,0.00,127.00,VWS V14.01,2013-10-16 19:49:00,
2013-10-16 14:50:00,53.4,46.7,29.92,West,267,10.3,18.4,78,0.00,,,0.00,137.00,VWS V14.01,2013-10-16 19:50:00,
2013-10-16 14:51:00,53.4,46.7,29.93,West,273,12.6,13.8,78,0.00,,,0.00,142.00,VWS V14.01,2013-10-16 19:51:00,
2013-10-16 14:53:00,53.5,46.8,29.93,WNW,285,10.3,16.1,78,0.00,,,0.00,146.00,VWS V14.01,2013-10-16 19:53:00,
2013-10-16 14:55:00,53.5,46.8,29.93,WNW,301,8.1,16.1,78,0.00,,,0.00,149.00,VWS V14.01,2013-10-16 19:55:00,
2013-10-16 14:56:00,53.5,46.8,29.92,WSW,244,8.1,13.8,78,0.00,,,0.00,169.00,VWS V14.01,2013-10-16 19:56:00,
2013-10-16 14:57:00,53.5,46.8,29.92,WSW,239,5.8,13.8,78,0.00,,,0.00,179.00,VWS V14.01,2013-10-16 19:57:00,
2013-10-16 14:58:00,53.5,46.8,29.92,WSW,246,13.8,14.9,78,0.00,,,0.00,179.00,VWS V14.01,2013-10-16 19:58:00,
2013-10-16 14:59:00,53.5,46.8,29.92,SW,233,6.9,14.9,78,0.00,,,0.00,179.00,VWS V14.01,2013-10-16 19:59:00,
2013-10-16 15:01:00,53.6,46.9,29.92,WSW,250,11.5,14.9,78,0.00,,,0.00,160.00,VWS V14.01,2013-10-16 20:01:00,
2013-10-16 15:02:00,53.7,47.0,29.92,West,263,8.1,14.9,78,0.00,,,0.00,160.00,VWS V14.01,2013-10-16 20:02:00,
2013-10-16 15:03:00,53.7,47.3,29.92,West,262,12.6,14.9,79,0.00,,,0.00,149.00,VWS V14.01,2013-10-16 20:03:00,
2013-10-16 15:04:00,53.8,47.5,29.92,WSW,248,10.3,14.9,79,0.00,,,0.00,142.00,VWS V14.01,2013-10-16 20:04:00,
2013-10-16 15:07:00,53.8,47.1,29.92,West,264,9.2,14.9,78,0.00,,,0.00,116.00,VWS V14.01,2013-10-16 20:07:00,
2013-10-16 15:08:00,53.8,47.1,29.92,WSW,243,8.1,14.9,78,0.00,,,0.00,123.00,VWS V14.01,2013-10-16 20:08:00,
2013-10-16 15:09:00,53.8,47.5,29.92,WSW,254,11.5,14.9,79,0.00,,,0.00,132.00,VWS V14.01,2013-10-16 20:09:00,
2013-10-16 15:11:00,53.8,47.1,29.92,WSW,257,11.5,13.8,78,0.00,,,0.00,137.00,VWS V14.01,2013-10-16 20:11:00,
2013-10-16 15:13:00,53.8,47.1,29.92,WSW,247,12.6,18.4,78,0.00,,,0.00,146.00,VWS V14.01,2013-10-16 20:13:00,
2013-10-16 15:14:00,53.8,47.5,29.92,West,267,11.5,18.4,79,0.00,,,0.00,144.00,VWS V14.01,2013-10-16 20:14:00,
2013-10-16 15:15:00,53.8,47.1,29.92,West,264,9.2,18.4,78,0.00,,,0.00,139.00,VWS V14.01,2013-10-16 20:15:00,
2013-10-16 15:16:00,53.8,47.1,29.92,West,262,9.2,10.3,78,0.00,,,0.00,130.00,VWS V14.01,2013-10-16 20:16:00,
2013-10-16 15:19:00,53.8,47.1,29.92,WSW,244,8.1,12.6,78,0.00,,,0.00,121.00,VWS V14.01,2013-10-16 20:19:00,
2013-10-16 15:20:00,53.8,47.1,29.92,WSW,255,11.5,13.8,78,0.00,,,0.00,123.00,VWS V14.01,2013-10-16 20:20:00,
2013-10-16 15:23:00,53.8,46.8,29.92,West,273,5.8,14.9,77,0.00,,,0.00,163.00,VWS V14.01,2013-10-16 20:23:00,
2013-10-16 15:24:00,53.8,47.1,29.92,West,271,14.9,16.1,78,0.00,,,0.00,179.00,VWS V14.01,2013-10-16 20:24:00,
2013-10-16 15:25:00,53.8,47.1,29.92,WSW,258,11.5,16.1,78,0.00,,,0.00,179.00,VWS V14.01,2013-10-16 20:25:00,
2013-10-16 15:26:00,53.8,47.1,29.92,WSW,257,10.3,12.6,78,0.00,,,0.00,181.00,VWS V14.01,2013-10-16 20:26:00,
2013-10-16 15:28:00,53.9,47.2,29.92,West,264,12.6,12.6,78,0.00,,,0.00,178.00,VWS V14.01,2013-10-16 20:28:00,
2013-10-16 15:30:00,54.0,47.3,29.92,WSW,248,9.2,14.9,78,0.00,,,0.00,171.00,VWS V14.01,2013-10-16 20:30:00,
2013-10-16 15:31:00,54.0,47.0,29.92,West,274,8.1,14.9,77,0.00,,,0.00,165.00,VWS V14.01,2013-10-16 20:31:00,
2013-10-16 15:32:00,54.0,47.0,29.92,WSW,248,11.5,17.2,77,0.00,,,0.00,162.00,VWS V14.01,2013-10-16 20:32:00,
2013-10-16 15:33:00,53.9,46.9,29.92,WNW,283,11.5,17.2,77,0.00,,,0.00,160.00,VWS V14.01,2013-10-16 20:33:00,
2013-10-16 15:36:00,54.0,47.3,29.92,West,266,5.8,8.1,78,0.00,,,0.00,153.00,VWS V14.01,2013-10-16 20:36:00,
2013-10-16 15:37:00,54.0,47.0,29.92,WNW,292,4.6,8.1,77,0.00,,,0.00,155.00,VWS V14.01,2013-10-16 20:37:00,
2013-10-16 15:38:00,54.0,47.0,29.92,West,271,14.9,14.9,77,0.00,,,0.00,156.00,VWS V14.01,2013-10-16 20:38:00,
2013-10-16 15:39:00,54.0,47.0,29.92,West,267,12.6,16.1,77,0.00,,,0.00,160.00,VWS V14.01,2013-10-16 20:39:00,
2013-10-16 15:42:00,53.9,46.5,29.92,West,275,6.9,10.3,76,0.00,,,0.00,158.00,VWS V14.01,2013-10-16 20:42:00,
2013-10-16 15:43:00,53.9,46.9,29.92,West,267,9.2,12.6,77,0.00,,,0.00,156.00,VWS V14.01,2013-10-16 20:43:00,
2013-10-16 15:44:00,53.9,46.9,29.92,WSW,254,14.9,16.1,77,0.00,,,0.00,156.00,VWS V14.01,2013-10-16 20:44:00,
2013-10-16 15:46:00,53.9,46.9,29.92,West,265,14.9,14.9,77,0.00,,,0.00,158.00,VWS V14.01,2013-10-16 20:46:00,
2013-10-16 15:47:00,53.9,46.9,29.92,WNW,282,13.8,14.9,77,0.00,,,0.00,156.00,VWS V14.01,2013-10-16 20:47:00,
2013-10-16 15:48:00,53.9,46.9,29.92,WNW,300,10.3,14.9,77,0.00,,,0.00,155.00,VWS V14.01,2013-10-16 20:48:00,
2013-10-16 15:50:00,53.9,46.9,29.92,WNW,296,12.6,14.9,77,0.00,,,0.00,148.00,VWS V14.01,2013-10-16 20:50:00,
2013-10-16 15:52:00,53.9,46.9,29.92,West,271,6.9,13.8,77,0.00,,,0.00,128.00,VWS V14.01,2013-10-16 20:52:00,
2013-10-16 15:53:00,53.8,46.8,29.92,WNW,294,12.6,13.8,77,0.00,,,0.00,127.00,VWS V14.01,2013-10-16 20:53:00,
2013-10-16 15:54:00,53.9,46.9,29.92,West,264,8.1,13.8,77,0.00,,,0.00,123.00,VWS V14.01,2013-10-16 20:54:00,
2013-10-16 15:55:00,53.9,46.9,29.92,West,269,11.5,13.8,77,0.00,,,0.00,120.00,VWS V14.01,2013-10-16 20:55:00,
2013-10-16 15:56:00,53.9,46.9,29.92,West,268,12.6,13.8,77,0.00,,,0.00,105.00,VWS V14.01,2013-10-16 20:56:00,
2013-10-16 15:57:00,53.9,46.9,29.92,WNW,287,8.1,13.8,77,0.00,,,0.00,105.00,VWS V14.01,2013-10-16 20:57:00,
2013-10-16 15:58:00,53.9,46.9,29.92,West,271,10.3,13.8,77,0.00,,,0.00,113.00,VWS V14.01,2013-10-16 20:58:00,
2013-10-16 16:00:00,53.9,46.9,29.92,West,281,6.9,13.8,77,0.00,,,0.00,125.00,VWS V14.01,2013-10-16 21:00:00,
2013-10-16 16:02:00,53.8,46.8,29.92,West,280,13.8,13.8,77,0.00,,,0.00,114.00,VWS V14.01,2013-10-16 21:02:00,
2013-10-16 16:03:00,53.8,46.8,29.92,West,267,11.5,14.9,77,0.00,,,0.00,109.00,VWS V14.01,2013-10-16 21:03:00,
2013-10-16 16:05:00,53.8,46.8,29.92,West,278,9.2,16.1,77,0.00,,,0.00,102.00,VWS V14.01,2013-10-16 21:05:00,
2013-10-16 16:07:00,53.8,46.8,29.92,WNW,288,12.6,12.6,77,0.00,,,0.00,104.00,VWS V14.01,2013-10-16 21:07:00,
2013-10-16 16:08:00,53.7,46.7,29.92,West,268,12.6,16.1,77,0.00,,,0.00,100.00,VWS V14.01,2013-10-16 21:08:00,
2013-10-16 16:09:00,53.7,46.7,29.92,WNW,284,9.2,16.1,77,0.00,,,0.00,98.00,VWS V14.01,2013-10-16 21:09:00,
2013-10-16 16:10:00,53.7,46.7,29.92,West,277,4.6,16.1,77,0.00,,,0.00,95.00,VWS V14.01,2013-10-16 21:10:00,
2013-10-16 16:12:00,53.7,46.7,29.92,WSW,257,6.9,12.6,77,0.00,,,0.00,77.00,VWS V14.01,2013-10-16 21:12:00,
2013-10-16 16:13:00,53.7,46.7,29.92,WSW,244,12.6,12.6,77,0.00,,,0.00,77.00,VWS V14.01,2013-10-16 21:13:00,
2013-10-16 16:14:00,53.8,46.8,29.92,West,263,6.9,12.6,77,0.00,,,0.00,76.00,VWS V14.01,2013-10-16 21:14:00,
2013-10-16 16:17:00,53.8,46.8,29.92,West,268,2.3,10.3,77,0.00,,,0.00,74.00,VWS V14.01,2013-10-16 21:17:00,
2013-10-16 16:18:00,53.8,46.8,29.92,WNW,285,8.1,11.5,77,0.00,,,0.00,70.00,VWS V14.01,2013-10-16 21:18:00,
2013-10-16 16:19:00,53.8,46.8,29.92,West,281,4.6,11.5,77,0.00,,,0.00,72.00,VWS V14.01,2013-10-16 21:19:00,
2013-10-16 16:20:00,53.8,46.8,29.92,WNW,290,6.9,11.5,77,0.00,,,0.00,74.00,VWS V14.01,2013-10-16 21:20:00,
2013-10-16 16:23:00,53.8,46.8,29.92,NW,306,8.1,11.5,77,0.00,,,0.00,70.00,VWS V14.01,2013-10-16 21:23:00,
2013-10-16 16:24:00,53.8,46.8,29.92,NW,304,5.8,12.6,77,0.00,,,0.00,72.00,VWS V14.01,2013-10-16 21:24:00,
2013-10-16 16:25:00,53.8,46.8,29.92,NW,308,12.6,14.9,77,0.00,,,0.00,72.00,VWS V14.01,2013-10-16 21:25:00,
2013-10-16 16:27:00,53.7,47.0,29.92,West,264,6.9,6.9,78,0.00,,,0.00,83.00,VWS V14.01,2013-10-16 21:27:00,
2013-10-16 16:28:00,53.7,47.0,29.92,WNW,294,11.5,11.5,78,0.00,,,0.00,83.00,VWS V14.01,2013-10-16 21:28:00,
2013-10-16 16:29:00,53.7,47.0,29.92,West,279,4.6,11.5,78,0.00,,,0.00,76.00,VWS V14.01,2013-10-16 21:29:00,
2013-10-16 16:30:00,53.8,46.8,29.92,WNW,293,4.6,11.5,77,0.00,,,0.00,70.00,VWS V14.01,2013-10-16 21:30:00,
2013-10-16 16:32:00,53.8,47.1,29.92,WNW,288,9.2,12.6,78,0.00,,,0.00,62.00,VWS V14.01,2013-10-16 21:32:00,
2013-10-16 16:33:00,53.8,47.1,29.92,West,273,4.6,12.6,78,0.00,,,0.00,58.00,VWS V14.01,2013-10-16 21:33:00,
2013-10-16 16:34:00,53.8,46.8,29.92,WNW,282,5.8,12.6,77,0.00,,,0.00,60.00,VWS V14.01,2013-10-16 21:34:00,
2013-10-16 16:36:00,53.8,46.8,29.92,WNW,283,6.9,9.2,77,0.00,,,0.00,60.00,VWS V14.01,2013-10-16 21:36:00,
2013-10-16 16:38:00,53.8,46.8,29.92,WNW,284,8.1,11.5,77,0.00,,,0.00,49.00,VWS V14.01,2013-10-16 21:38:00,
2013-10-16 16:39:00,53.8,46.8,29.92,West,275,8.1,11.5,77,0.00,,,0.00,49.00,VWS V14.01,2013-10-16 21:39:00,
2013-10-16 16:40:00,53.9,46.9,29.92,West,275,9.2,12.6,77,0.00,,,0.00,47.00,VWS V14.01,2013-10-16 21:40:00,
2013-10-16 16:41:00,53.9,46.9,29.92,West,280,10.3,12.6,77,0.00,,,0.00,46.00,VWS V14.01,2013-10-16 21:41:00,
2013-10-16 16:42:00,53.9,46.9,29.92,WNW,283,13.8,13.8,77,0.00,,,0.00,42.00,VWS V14.01,2013-10-16 21:42:00,
2013-10-16 16:44:00,53.8,46.8,29.92,WNW,288,8.1,13.8,77,0.00,,,0.00,40.00,VWS V14.01,2013-10-16 21:44:00,
2013-10-16 16:45:00,53.9,46.9,29.92,WNW,287,4.6,13.8,77,0.00,,,0.00,40.00,VWS V14.01,2013-10-16 21:45:00,
2013-10-16 16:46:00,53.8,46.8,29.92,WSW,247,8.1,10.3,77,0.00,,,0.00,40.00,VWS V14.01,2013-10-16 21:46:00,
2013-10-16 16:47:00,53.8,46.8,29.92,West,281,5.8,12.6,77,0.00,,,0.00,39.00,VWS V14.01,2013-10-16 21:47:00,
2013-10-16 16:48:00,53.8,46.8,29.92,WNW,287,9.2,12.6,77,0.00,,,0.00,39.00,VWS V14.01,2013-10-16 21:48:00,
2013-10-16 16:50:00,53.8,46.4,29.92,West,279,11.5,14.9,76,0.00,,,0.00,42.00,VWS V14.01,2013-10-16 21:50:00,
2013-10-16 16:51:00,53.8,46.8,29.92,WSW,251,9.2,12.6,77,0.00,,,0.00,42.00,VWS V14.01,2013-10-16 21:51:00,
2013-10-16 16:52:00,53.8,46.8,29.92,West,278,9.2,12.6,77,0.00,,,0.00,44.00,VWS V14.01,2013-10-16 21:52:00,
2013-10-16 16:54:00,53.8,46.4,29.92,West,271,10.3,12.6,76,0.00,,,0.00,42.00,VWS V14.01,2013-10-16 21:54:00,
2013-10-16 16:55:00,53.8,46.4,29.92,WNW,284,8.1,12.6,76,0.00,,,0.00,42.00,VWS V14.01,2013-10-16 21:55:00,
2013-10-16 16:57:00,53.8,46.4,29.92,West,279,11.5,11.5,76,0.00,,,0.00,39.00,VWS V14.01,2013-10-16 21:57:00,
2013-10-16 16:58:00,53.8,46.8,29.92,West,267,8.1,11.5,77,0.00,,,0.00,37.00,VWS V14.01,2013-10-16 21:58:00,
2013-10-16 16:59:00,53.8,46.8,29.92,WSW,254,8.1,11.5,77,0.00,,,0.00,35.00,VWS V14.01,2013-10-16 21:59:00,
2013-10-16 17:00:00,53.8,46.8,29.92,WNW,283,5.8,9.2,77,0.00,,,0.00,35.00,VWS V14.01,2013-10-16 22:00:00,
2013-10-16 17:02:00,53.8,46.8,29.92,WNW,284,12.6,12.6,77,0.00,,,0.00,35.00,VWS V14.01,2013-10-16 22:02:00,
2013-10-16 17:03:00,53.8,46.8,29.92,WNW,302,9.2,12.6,77,0.00,,,0.00,35.00,VWS V14.01,2013-10-16 22:03:00,
2013-10-16 17:04:00,53.8,46.8,29.92,NW,315,5.8,12.6,77,0.00,,,0.00,35.00,VWS V14.01,2013-10-16 22:04:00,
2013-10-16 17:06:00,53.8,46.8,29.92,West,277,5.8,9.2,77,0.00,,,0.00,35.00,VWS V14.01,2013-10-16 22:06:00,
2013-10-16 17:09:00,53.8,46.8,29.92,WNW,284,8.1,11.5,77,0.00,,,0.00,28.00,VWS V14.01,2013-10-16 22:09:00,
2013-10-16 17:11:00,53.8,46.8,29.92,WNW,286,4.6,8.1,77,0.00,,,0.00,26.00,VWS V14.01,2013-10-16 22:11:00,
2013-10-16 17:12:00,53.8,46.8,29.92,West,277,14.9,14.9,77,0.00,,,0.00,26.00,VWS V14.01,2013-10-16 22:12:00,
2013-10-16 17:14:00,53.7,46.7,29.92,West,265,8.1,14.9,77,0.00,,,0.00,26.00,VWS V14.01,2013-10-16 22:14:00,
2013-10-16 17:15:00,53.7,46.7,29.92,West,269,5.8,14.9,77,0.00,,,0.00,28.00,VWS V14.01,2013-10-16 22:15:00,
2013-10-16 17:16:00,53.7,46.7,29.92,West,275,4.6,11.5,77,0.00,,,0.00,30.00,VWS V14.01,2013-10-16 22:16:00,
2013-10-16 17:17:00,53.7,46.7,29.92,West,281,5.8,11.5,77,0.00,,,0.00,30.00,VWS V14.01,2013-10-16 22:17:00,
2013-10-16 17:20:00,53.7,46.7,29.92,WNW,289,4.6,11.5,77,0.00,,,0.00,25.00,VWS V14.01,2013-10-16 22:20:00,
2013-10-16 17:21:00,53.7,46.7,29.92,WNW,288,4.6,8.1,77,0.00,,,0.00,19.00,VWS V14.01,2013-10-16 22:21:00,
2013-10-16 17:22:00,53.7,46.7,29.92,West,281,8.1,8.1,77,0.00,,,0.00,19.00,VWS V14.01,2013-10-16 22:22:00,
2013-10-16 17:23:00,53.7,46.7,29.92,West,281,6.9,8.1,77,0.00,,,0.00,19.00,VWS V14.01,2013-10-16 22:23:00,
2013-10-16 17:25:00,53.6,46.6,29.92,West,259,4.6,11.5,77,0.00,,,0.00,18.00,VWS V14.01,2013-10-16 22:25:00,
2013-10-16 17:27:00,53.6,46.6,29.93,WNW,296,6.9,11.5,77,0.00,,,0.00,16.00,VWS V14.01,2013-10-16 22:27:00,
2013-10-16 17:28:00,53.6,46.6,29.93,West,273,10.3,11.5,77,0.00,,,0.00,16.00,VWS V14.01,2013-10-16 22:28:00,
2013-10-16 17:30:00,53.6,46.6,29.93,West,273,4.6,11.5,77,0.00,,,0.00,14.00,VWS V14.01,2013-10-16 22:30:00,
2013-10-16 17:33:00,53.5,46.5,29.93,WNW,286,6.9,8.1,77,0.00,,,0.00,12.00,VWS V14.01,2013-10-16 22:33:00,
2013-10-16 17:34:00,53.6,46.6,29.93,West,269,8.1,12.6,77,0.00,,,0.00,11.00,VWS V14.01,2013-10-16 22:34:00,
2013-10-16 17:36:00,53.5,46.5,29.93,West,271,8.1,10.3,77,0.00,,,0.00,12.00,VWS V14.01,2013-10-16 22:36:00,
2013-10-16 17:38:00,53.5,46.5,29.93,WSW,249,8.1,10.3,77,0.00,,,0.00,12.00,VWS V14.01,2013-10-16 22:38:00,
2013-10-16 17:39:00,53.5,46.5,29.93,WNW,286,5.8,10.3,77,0.00,,,0.00,12.00,VWS V14.01,2013-10-16 22:39:00,
2013-10-16 17:40:00,53.5,46.5,29.93,West,276,5.8,10.3,77,0.00,,,0.00,12.00,VWS V14.01,2013-10-16 22:40:00,
2013-10-16 17:42:00,53.4,46.4,29.93,WNW,289,8.1,9.2,77,0.00,,,0.00,11.00,VWS V14.01,2013-10-16 22:42:00,
2013-10-16 17:43:00,53.4,46.7,29.93,West,273,6.9,9.2,78,0.00,,,0.00,11.00,VWS V14.01,2013-10-16 22:43:00,
2013-10-16 17:44:00,53.4,46.7,29.93,West,275,3.4,9.2,78,0.00,,,0.00,9.00,VWS V14.01,2013-10-16 22:44:00,
2013-10-16 17:45:00,53.4,46.7,29.93,West,270,3.4,3.4,78,0.00,,,0.00,9.00,VWS V14.01,2013-10-16 22:45:00,
2013-10-16 17:46:00,53.4,46.7,29.93,WSW,251,6.9,8.1,78,0.00,,,0.00,7.00,VWS V14.01,2013-10-16 22:46:00,
2013-10-16 17:48:00,53.3,46.6,29.93,West,261,4.6,12.6,78,0.00,,,0.00,7.00,VWS V14.01,2013-10-16 22:48:00,
2013-10-16 17:49:00,53.3,46.6,29.93,WNW,284,5.8,12.6,78,0.00,,,0.00,7.00,VWS V14.01,2013-10-16 22:49:00,
2013-10-16 17:51:00,53.3,46.6,29.93,WNW,282,3.4,5.8,78,0.00,,,0.00,5.00,VWS V14.01,2013-10-16 22:51:00,
2013-10-16 17:52:00,53.3,46.6,29.93,West,281,3.4,6.9,78,0.00,,,0.00,5.00,VWS V14.01,2013-10-16 22:52:00,
2013-10-16 17:54:00,53.3,46.6,29.93,West,266,3.4,8.1,78,0.00,,,0.00,0.00,VWS V14.01,2013-10-16 22:54:00,
2013-10-16 17:55:00,53.2,46.5,29.93,West,264,6.9,8.1,78,0.00,,,0.00,0.00,VWS V14.01,2013-10-16 22:55:00,
2013-10-16 17:57:00,53.2,46.5,29.94,West,270,8.1,10.3,78,0.00,,,0.00,0.00,VWS V14.01,2013-10-16 22:57:00,
2013-10-16 17:58:00,53.2,46.5,29.93,WNW,289,10.3,10.3,78,0.00,,,0.00,0.00,VWS V14.01,2013-10-16 22:58:00,
2013-10-16 17:59:00,53.2,46.5,29.94,West,267,5.8,10.3,78,0.00,,,0.00,0.00,VWS V14.01,2013-10-16 22:59:00,
2013-10-16 18:02:00,53.1,46.4,29.94,West,263,4.6,10.3,78,0.00,,,0.00,0.00,VWS V14.01,2013-10-16 23:02:00,
2013-10-16 18:04:00,53.1,46.4,29.94,WSW,257,5.8,10.3,78,0.00,,,0.00,0.00,VWS V14.01,2013-10-16 23:04:00,
2013-10-16 18:05:00,53.1,46.4,29.94,West,266,4.6,10.3,78,0.00,,,0.00,0.00,VWS V14.01,2013-10-16 23:05:00,
2013-10-16 18:06:00,53.1,46.4,29.94,WSW,250,5.8,6.9,78,0.00,,,0.00,0.00,VWS V14.01,2013-10-16 23:06:00,
2013-10-16 18:08:00,53.0,46.3,29.94,WSW,251,9.2,9.2,78,0.00,,,0.00,0.00,VWS V14.01,2013-10-16 23:08:00,
2013-10-16 18:09:00,53.0,46.3,29.94,West,259,3.4,9.2,78,0.00,,,0.00,0.00,VWS V14.01,2013-10-16 23:09:00,
2013-10-16 18:11:00,53.0,46.7,29.94,West,260,4.6,5.8,79,0.00,,,0.00,0.00,VWS V14.01,2013-10-16 23:11:00,
2013-10-16 18:12:00,53.0,46.7,29.94,West,265,8.1,9.2,79,0.00,,,0.00,0.00,VWS V14.01,2013-10-16 23:12:00,
2013-10-16 18:14:00,53.0,46.3,29.94,WNW,285,9.2,10.3,78,0.00,,,0.00,0.00,VWS V14.01,2013-10-16 23:14:00,
2013-10-16 18:16:00,52.9,46.2,29.94,WNW,284,3.4,3.4,78,0.00,,,0.00,0.00,VWS V14.01,2013-10-16 23:16:00,
2013-10-16 18:17:00,52.9,46.2,29.94,West,271,4.6,8.1,78,0.00,,,0.00,0.00,VWS V14.01,2013-10-16 23:17:00,
2013-10-16 18:19:00,52.9,46.2,29.94,West,274,6.9,10.3,78,0.00,,,0.00,0.00,VWS V14.01,2013-10-16 23:19:00,
2013-10-16 18:20:00,52.8,46.1,29.94,West,269,4.6,10.3,78,0.00,,,0.00,0.00,VWS V14.01,2013-10-16 23:20:00,
2013-10-16 18:21:00,52.8,46.1,29.94,West,261,8.1,8.1,78,0.00,,,0.00,0.00,VWS V14.01,2013-10-16 23:21:00,
2013-10-16 18:22:00,52.8,46.1,29.94,West,260,4.6,8.1,78,0.00,,,0.00,0.00,VWS V14.01,2013-10-16 23:22:00,
2013-10-16 18:23:00,52.8,46.1,29.94,West,272,10.3,10.3,78,0.00,,,0.00,0.00,VWS V14.01,2013-10-16 23:23:00,
2013-10-16 18:24:00,52.8,46.5,29.94,West,263,5.8,10.3,79,0.00,,,0.00,0.00,VWS V14.01,2013-10-16 23:24:00,
2013-10-16 18:26:00,52.7,46.4,29.94,West,261,6.9,10.3,79,0.00,,,0.00,0.00,VWS V14.01,2013-10-16 23:26:00,
2013-10-16 18:27:00,52.7,46.4,29.94,WNW,292,3.4,10.3,79,0.00,,,0.00,0.00,VWS V14.01,2013-10-16 23:27:00,
2013-10-16 18:29:00,52.7,46.4,29.94,West,261,3.4,10.3,79,0.00,,,0.00,0.00,VWS V14.01,2013-10-16 23:29:00,
2013-10-16 18:30:00,52.7,46.4,29.94,West,261,4.6,10.3,79,0.00,,,0.00,0.00,VWS V14.01,2013-10-16 23:30:00,
2013-10-16 18:31:00,52.7,46.4,29.94,WNW,285,3.4,5.8,79,0.00,,,0.00,0.00,VWS V14.01,2013-10-16 23:31:00,
2013-10-16 18:32:00,52.6,46.3,29.94,West,269,3.4,6.9,79,0.00,,,0.00,0.00,VWS V14.01,2013-10-16 23:32:00,
2013-10-16 18:35:00,52.6,46.3,29.94,WSW,254,6.9,6.9,79,0.00,,,0.00,0.00,VWS V14.01,2013-10-16 23:35:00,
2013-10-16 18:37:00,52.6,46.3,29.94,West,259,5.8,8.1,79,0.00,,,0.00,0.00,VWS V14.01,2013-10-16 23:37:00,
2013-10-16 18:38:00,52.6,46.3,29.95,West,265,4.6,8.1,79,0.00,,,0.00,0.00,VWS V14.01,2013-10-16 23:38:00,
2013-10-16 18:40:00,52.6,46.3,29.94,West,262,2.3,4.6,79,0.00,,,0.00,0.00,VWS V14.01,2013-10-16 23:40:00,
2013-10-16 18:42:00,52.6,46.3,29.95,WNW,286,5.8,6.9,79,0.00,,,0.00,0.00,VWS V14.01,2013-10-16 23:42:00,
2013-10-16 18:43:00,52.5,46.2,29.94,West,275,6.9,6.9,79,0.00,,,0.00,0.00,VWS V14.01,2013-10-16 23:43:00,
2013-10-16 18:44:00,52.5,46.2,29.94,West,265,10.3,10.3,79,0.00,,,0.00,0.00,VWS V14.01,2013-10-16 23:44:00,
2013-10-16 18:45:00,52.5,46.2,29.94,West,259,4.6,6.9,79,0.00,,,0.00,0.00,VWS V14.01,2013-10-16 23:45:00,
2013-10-16 18:47:00,52.5,46.2,29.95,West,260,5.8,6.9,79,0.00,,,0.00,0.00,VWS V14.01,2013-10-16 23:47:00,
2013-10-16 18:48:00,52.5,46.2,29.94,West,260,6.9,6.9,79,0.00,,,0.00,0.00,VWS V14.01,2013-10-16 23:48:00,
2013-10-16 18:49:00,52.5,46.2,29.94,West,261,4.6,6.9,79,0.00,,,0.00,0.00,VWS V14.01,2013-10-16 23:49:00,
2013-10-16 18:51:00,52.4,46.1,29.94,WSW,248,6.9,8.1,79,0.00,,,0.00,0.00,VWS V14.01,2013-10-16 23:51:00,
2013-10-16 18:53:00,52.4,46.4,29.94,West,263,6.9,8.1,80,0.00,,,0.00,0.00,VWS V14.01,2013-10-16 23:53:00,
2013-10-16 18:55:00,52.4,46.4,29.95,West,279,10.3,10.3,80,0.00,,,0.00,0.00,VWS V14.01,2013-10-16 23:55:00,
2013-10-16 18:56:00,52.4,46.4,29.94,West,272,5.8,9.2,80,0.00,,,0.00,0.00,VWS V14.01,2013-10-16 23:56:00,
2013-10-16 18:58:00,52.3,46.3,29.95,WNW,284,5.8,9.2,80,0.00,,,0.00,0.00,VWS V14.01,2013-10-16 23:58:00,
2013-10-16 19:00:00,52.3,46.3,29.95,WNW,282,6.9,6.9,80,0.00,,,0.00,0.00,VWS V14.01,2013-10-17 00:00:00,
2013-10-16 19:01:00,52.3,46.3,29.95,West,275,3.4,6.9,80,0.00,,,0.00,0.00,VWS V14.01,2013-10-17 00:01:00,
2013-10-16 19:02:00,52.3,46.3,29.95,West,277,8.1,8.1,80,0.00,,,0.00,0.00,VWS V14.01,2013-10-17 00:02:00,
2013-10-16 19:05:00,52.3,46.0,29.95,WNW,284,3.4,10.3,79,0.00,,,0.00,0.00,VWS V14.01,2013-10-17 00:05:00,
2013-10-16 19:07:00,52.2,45.9,29.95,WNW,293,4.6,9.2,79,0.00,,,0.00,0.00,VWS V14.01,2013-10-17 00:07:00,
2013-10-16 19:08:00,52.2,45.9,29.95,WNW,290,8.1,11.5,79,0.00,,,0.00,0.00,VWS V14.01,2013-10-17 00:08:00,
2013-10-16 19:10:00,52.2,45.9,29.95,WNW,288,8.1,11.5,79,0.00,,,0.00,0.00,VWS V14.01,2013-10-17 00:10:00,
2013-10-16 19:11:00,52.2,45.9,29.95,West,279,5.8,6.9,79,0.00,,,0.00,0.00,VWS V14.01,2013-10-17 00:11:00,
2013-10-16 19:12:00,52.2,45.9,29.95,WNW,286,4.6,6.9,79,0.00,,,0.00,0.00,VWS V14.01,2013-10-17 00:12:00,
2013-10-16 19:13:00,52.2,46.2,29.95,WNW,294,6.9,6.9,80,0.00,,,0.00,0.00,VWS V14.01,2013-10-17 00:13:00,
2013-10-16 19:14:00,52.2,46.2,29.95,WNW,282,5.8,6.9,80,0.00,,,0.00,0.00,VWS V14.01,2013-10-17 00:14:00,
2013-10-16 19:16:00,52.2,46.2,29.95,West,269,4.6,6.9,80,0.00,,,0.00,0.00,VWS V14.01,2013-10-17 00:16:00,
2013-10-16 19:17:00,52.2,46.2,29.95,West,280,6.9,6.9,80,0.00,,,0.00,0.00,VWS V14.01,2013-10-17 00:17:00,
2013-10-16 19:18:00,52.1,46.1,29.95,West,281,4.6,6.9,80,0.00,,,0.00,0.00,VWS V14.01,2013-10-17 00:18:00,
2013-10-16 19:19:00,52.1,46.1,29.95,WNW,292,6.9,8.1,80,0.00,,,0.00,0.00,VWS V14.01,2013-10-17 00:19:00,
2013-10-16 19:22:00,52.1,46.1,29.95,West,280,5.8,11.5,80,0.00,,,0.00,0.00,VWS V14.01,2013-10-17 00:22:00,
2013-10-16 19:24:00,52.1,46.1,29.95,WNW,288,4.6,11.5,80,0.00,,,0.00,0.00,VWS V14.01,2013-10-17 00:24:00,
2013-10-16 19:25:00,52.1,46.1,29.95,West,279,5.8,11.5,80,0.00,,,0.00,0.00,VWS V14.01,2013-10-17 00:25:00,
2013-10-16 19:28:00,52.0,46.0,29.95,West,270,5.8,10.3,80,0.00,,,0.00,0.00,VWS V14.01,2013-10-17 00:28:00,
2013-10-16 19:29:00,52.0,46.0,29.95,WNW,290,5.8,10.3,80,0.00,,,0.00,0.00,VWS V14.01,2013-10-17 00:29:00,
2013-10-16 19:30:00,52.0,46.0,29.95,West,265,6.9,10.3,80,0.00,,,0.00,0.00,VWS V14.01,2013-10-17 00:30:00,
2013-10-16 19:32:00,52.0,46.0,29.95,WNW,282,4.6,10.3,80,0.00,,,0.00,0.00,VWS V14.01,2013-10-17 00:32:00,
2013-10-16 19:33:00,52.0,46.0,29.95,West,281,6.9,10.3,80,0.00,,,0.00,0.00,VWS V14.01,2013-10-17 00:33:00,
2013-10-16 19:35:00,52.0,46.0,29.95,West,279,5.8,10.3,80,0.00,,,0.00,0.00,VWS V14.01,2013-10-17 00:35:00,
2013-10-16 19:36:00,51.9,45.9,29.95,West,279,5.8,5.8,80,0.00,,,0.00,0.00,VWS V14.01,2013-10-17 00:36:00,
2013-10-16 19:37:00,51.9,45.9,29.95,West,271,2.3,8.1,80,0.00,,,0.00,0.00,VWS V14.01,2013-10-17 00:37:00,
2013-10-16 19:38:00,51.9,45.9,29.95,WSW,258,4.6,8.1,80,0.00,,,0.00,0.00,VWS V14.01,2013-10-17 00:38:00,
2013-10-16 19:40:00,51.9,46.3,29.95,WNW,284,8.1,8.1,81,0.00,,,0.00,0.00,VWS V14.01,2013-10-17 00:40:00,
2013-10-16 19:42:00,51.9,46.3,29.95,WNW,286,3.4,9.2,81,0.00,,,0.00,0.00,VWS V14.01,2013-10-17 00:42:00,
2013-10-16 19:43:00,51.9,46.3,29.95,WNW,284,4.6,9.2,81,0.00,,,0.00,0.00,VWS V14.01,2013-10-17 00:43:00,
2013-10-16 19:44:00,51.8,46.2,29.96,WNW,289,8.1,9.2,81,0.00,,,0.00,0.00,VWS V14.01,2013-10-17 00:44:00,
2013-10-16 19:45:00,51.9,45.9,29.96,West,263,5.8,9.2,80,0.00,,,0.00,0.00,VWS V14.01,2013-10-17 00:45:00,
2013-10-16 19:46:00,51.8,45.8,29.96,WNW,286,4.6,6.9,80,0.00,,,0.00,0.00,VWS V14.01,2013-10-17 00:46:00,
2013-10-16 19:48:00,51.8,46.2,29.96,West,281,3.4,6.9,81,0.00,,,0.00,0.00,VWS V14.01,2013-10-17 00:48:00,
2013-10-16 19:49:00,51.8,46.2,29.95,WNW,283,2.3,6.9,81,0.00,,,0.00,0.00,VWS V14.01,2013-10-17 00:49:00,
2013-10-16 19:50:00,51.8,46.2,29.95,WNW,285,5.8,6.9,81,0.00,,,0.00,0.00,VWS V14.01,2013-10-17 00:50:00,
2013-10-16 19:51:00,51.8,46.2,29.95,West,276,5.8,8.1,81,0.00,,,0.00,0.00,VWS V14.01,2013-10-17 00:51:00,
2013-10-16 19:53:00,51.8,46.2,29.96,West,275,8.1,8.1,81,0.00,,,0.00,0.00,VWS V14.01,2013-10-17 00:53:00,
2013-10-16 19:55:00,51.7,46.1,29.96,NW,309,5.8,6.9,81,0.00,,,0.00,0.00,VWS V14.01,2013-10-17 00:55:00,
2013-10-16 19:56:00,51.7,46.1,29.96,WNW,303,5.8,6.9,81,0.00,,,0.00,0.00,VWS V14.01,2013-10-17 00:56:00,
2013-10-16 19:57:00,51.7,46.1,29.96,West,281,5.8,8.1,81,0.00,,,0.00,0.00,VWS V14.01,2013-10-17 00:57:00,
2013-10-16 19:58:00,51.7,46.1,29.96,West,275,5.8,8.1,81,0.00,,,0.00,0.00,VWS V14.01,2013-10-17 00:58:00,
2013-10-16 19:59:00,51.7,46.1,29.96,West,275,4.6,8.1,81,0.00,,,0.00,0.00,VWS V14.01,2013-10-17 00:59:00,
2013-10-16 20:01:00,51.7,46.1,29.96,West,281,5.8,5.8,81,0.00,,,0.00,0.00,VWS V14.01,2013-10-17 01:01:00,
2013-10-16 20:02:00,51.7,46.1,29.96,West,281,4.6,5.8,81,0.00,,,0.00,0.00,VWS V14.01,2013-10-17 01:02:00,
2013-10-16 20:04:00,51.7,46.1,29.96,West,281,5.8,6.9,81,0.00,,,0.00,0.00,VWS V14.01,2013-10-17 01:04:00,
2013-10-16 20:06:00,51.6,46.0,29.96,West,262,4.6,8.1,81,0.00,,,0.00,0.00,VWS V14.01,2013-10-17 01:06:00,
2013-10-16 20:07:00,51.6,46.0,29.96,West,263,5.8,8.1,81,0.00,,,0.00,0.00,VWS V14.01,2013-10-17 01:07:00,
2013-10-16 20:09:00,51.6,46.0,29.96,West,269,6.9,8.1,81,0.00,,,0.00,0.00,VWS V14.01,2013-10-17 01:09:00,
2013-10-16 20:11:00,51.6,46.3,29.96,West,281,5.8,8.1,82,0.00,,,0.00,0.00,VWS V14.01,2013-10-17 01:11:00,
2013-10-16 20:12:00,51.6,46.3,29.96,West,281,4.6,8.1,82,0.00,,,0.00,0.00,VWS V14.01,2013-10-17 01:12:00,
2013-10-16 20:14:00,51.6,46.3,29.96,West,281,3.4,8.1,82,0.00,,,0.00,0.00,VWS V14.01,2013-10-17 01:14:00,
2013-10-16 20:15:00,51.5,46.2,29.96,West,281,3.4,8.1,82,0.00,,,0.00,0.00,VWS V14.01,2013-10-17 01:15:00,
2013-10-16 20:17:00,51.5,46.2,29.96,West,281,4.6,4.6,82,0.00,,,0.00,0.00,VWS V14.01,2013-10-17 01:17:00,
2013-10-16 20:18:00,51.5,46.2,29.96,West,273,8.1,8.1,82,0.00,,,0.00,0.00,VWS V14.01,2013-10-17 01:18:00,
2013-10-16 20:19:00,51.5,46.2,29.96,West,273,5.8,8.1,82,0.00,,,0.00,0.00,VWS V14.01,2013-10-17 01:19:00,
2013-10-16 20:21:00,51.5,46.2,29.96,West,273,4.6,4.6,82,0.00,,,0.00,0.00,VWS V14.01,2013-10-17 01:21:00,
2013-10-16 20:24:00,51.5,46.2,29.97,WSW,258,4.6,8.1,82,0.00,,,0.00,0.00,VWS V14.01,2013-10-17 01:24:00,
2013-10-16 20:26:00,51.5,46.2,29.97,West,277,8.1,8.1,82,0.00,,,0.00,0.00,VWS V14.01,2013-10-17 01:26:00,
2013-10-16 20:27:00,51.4,46.1,29.97,West,275,3.4,8.1,82,0.00,,,0.00,0.00,VWS V14.01,2013-10-17 01:27:00,
2013-10-16 20:29:00,51.4,46.1,29.97,West,279,6.9,9.2,82,0.00,,,0.00,0.00,VWS V14.01,2013-10-17 01:29:00,
2013-10-16 20:30:00,51.4,46.1,29.97,WNW,298,8.1,9.2,82,0.00,,,0.00,0.00,VWS V14.01,2013-10-17 01:30:00,
2013-10-16 20:31:00,51.4,46.1,29.97,WNW,282,4.6,8.1,82,0.00,,,0.00,0.00,VWS V14.01,2013-10-17 01:31:00,
2013-10-16 20:32:00,51.4,46.1,29.97,West,281,4.6,8.1,82,0.00,,,0.00,0.00,VWS V14.01,2013-10-17 01:32:00,
2013-10-16 20:34:00,51.4,46.1,29.97,West,277,9.2,9.2,82,0.00,,,0.00,0.00,VWS V14.01,2013-10-17 01:34:00,
2013-10-16 20:36:00,51.4,46.1,29.97,West,276,3.4,5.8,82,0.00,,,0.00,0.00,VWS V14.01,2013-10-17 01:36:00,
2013-10-16 20:37:00,51.4,46.1,29.97,WNW,284,5.8,6.9,82,0.00,,,0.00,0.00,VWS V14.01,2013-10-17 01:37:00,
2013-10-16 20:39:00,51.4,46.1,29.97,West,277,3.4,9.2,82,0.00,,,0.00,0.00,VWS V14.01,2013-10-17 01:39:00,
2013-10-16 20:40:00,51.4,46.1,29.97,West,277,3.4,9.2,82,0.00,,,0.00,0.00,VWS V14.01,2013-10-17 01:40:00,
2013-10-16 20:41:00,51.4,46.1,29.97,WNW,284,6.9,9.2,82,0.00,,,0.00,0.00,VWS V14.01,2013-10-17 01:41:00,
2013-10-16 20:42:00,51.4,46.1,29.97,West,273,4.6,9.2,82,0.00,,,0.00,0.00,VWS V14.01,2013-10-17 01:42:00,
2013-10-16 20:43:00,51.4,46.1,29.97,West,273,4.6,9.2,82,0.00,,,0.00,0.00,VWS V14.01,2013-10-17 01:43:00,
2013-10-16 20:45:00,51.3,46.0,29.97,WNW,286,3.4,9.2,82,0.00,,,0.00,0.00,VWS V14.01,2013-10-17 01:45:00,
2013-10-16 20:47:00,51.3,46.0,29.97,West,274,4.6,8.1,82,0.00,,,0.00,0.00,VWS V14.01,2013-10-17 01:47:00,
2013-10-16 20:48:00,51.3,46.0,29.97,West,274,3.4,8.1,82,0.00,,,0.00,0.00,VWS V14.01,2013-10-17 01:48:00,
2013-10-16 20:50:00,51.3,46.0,29.97,West,273,5.8,8.1,82,0.00,,,0.00,0.00,VWS V14.01,2013-10-17 01:50:00,
2013-10-16 20:51:00,51.3,46.0,29.97,West,275,4.6,6.9,82,0.00,,,0.00,0.00,VWS V14.01,2013-10-17 01:51:00,
2013-10-16 20:53:00,51.3,46.0,29.97,West,275,3.4,6.9,82,0.00,,,0.00,0.00,VWS V14.01,2013-10-17 01:53:00,
2013-10-16 20:54:00,51.3,46.3,29.97,WNW,285,4.6,6.9,83,0.00,,,0.00,0.00,VWS V14.01,2013-10-17 01:54:00,
2013-10-16 20:55:00,51.3,46.3,29.97,WNW,285,2.3,6.9,83,0.00,,,0.00,0.00,VWS V14.01,2013-10-17 01:55:00,
2013-10-16 20:57:00,51.3,46.3,29.97,WNW,289,5.8,6.9,83,0.00,,,0.00,0.00,VWS V14.01,2013-10-17 01:57:00,
2013-10-16 20:58:00,51.3,46.3,29.97,WNW,288,4.6,6.9,83,0.00,,,0.00,0.00,VWS V14.01,2013-10-17 01:58:00,
2013-10-16 20:59:00,51.2,46.2,29.97,WNW,288,3.4,6.9,83,0.00,,,0.00,0.00,VWS V14.01,2013-10-17 01:59:00,
2013-10-16 21:00:00,51.2,46.2,29.97,WNW,288,3.4,6.9,83,0.00,,,0.00,0.00,VWS V14.01,2013-10-17 02:00:00,
2013-10-16 21:01:00,51.2,46.2,29.97,West,265,4.6,6.9,83,0.00,,,0.00,0.00,VWS V14.01,2013-10-17 02:01:00,
2013-10-16 21:04:00,51.2,46.2,29.97,West,263,5.8,6.9,83,0.00,,,0.00,0.00,VWS V14.01,2013-10-17 02:04:00,
2013-10-16 21:05:00,51.2,46.2,29.97,West,273,6.9,8.1,83,0.00,,,0.00,0.00,VWS V14.01,2013-10-17 02:05:00,
2013-10-16 21:08:00,51.2,46.2,29.97,WSW,257,6.9,9.2,83,0.00,,,0.00,0.00,VWS V14.01,2013-10-17 02:08:00,
2013-10-16 21:09:00,51.2,46.2,29.97,West,275,3.4,9.2,83,0.00,,,0.00,0.00,VWS V14.01,2013-10-17 02:09:00,
2013-10-16 21:10:00,51.2,46.2,29.97,West,275,3.4,9.2,83,0.00,,,0.00,0.00,VWS V14.01,2013-10-17 02:10:00,
2013-10-16 21:11:00,51.2,46.2,29.97,West,275,4.6,5.8,83,0.00,,,0.00,0.00,VWS V14.01,2013-10-17 02:11:00,
2013-10-16 21:15:00,51.2,46.2,29.97,West,279,5.8,6.9,83,0.00,,,0.00,0.00,VWS V14.01,2013-10-17 02:15:00,
2013-10-16 21:16:00,51.2,46.2,29.97,West,279,5.8,5.8,83,0.00,,,0.00,0.00,VWS V14.01,2013-10-17 02:16:00,
2013-10-16 21:20:00,51.2,46.2,29.97,West,268,3.4,6.9,83,0.00,,,0.00,0.00,VWS V14.01,2013-10-17 02:20:00,
2013-10-16 21:21:00,51.1,46.1,29.97,West,268,5.8,5.8,83,0.00,,,0.00,0.00,VWS V14.01,2013-10-17 02:21:00,
2013-10-16 21:22:00,51.1,46.1,29.97,WSW,255,5.8,5.8,83,0.00,,,0.00,0.00,VWS V14.01,2013-10-17 02:22:00,
2013-10-16 21:23:00,51.1,46.1,29.97,WNW,282,2.3,6.9,83,0.00,,,0.00,0.00,VWS V14.01,2013-10-17 02:23:00,
2013-10-16 21:26:00,51.1,46.1,29.97,West,279,4.6,4.6,83,0.00,,,0.00,0.00,VWS V14.01,2013-10-17 02:26:00,
2013-10-16 21:27:00,51.1,46.1,29.97,West,279,3.4,4.6,83,0.00,,,0.00,0.00,VWS V14.01,2013-10-17 02:27:00,
2013-10-16 21:30:00,51.1,46.1,29.97,West,273,3.4,5.8,83,0.00,,,0.00,0.00,VWS V14.01,2013-10-17 02:30:00,
2013-10-16 21:31:00,51.1,46.1,29.97,West,265,4.6,5.8,83,0.00,,,0.00,0.00,VWS V14.01,2013-10-17 02:31:00,
2013-10-16 21:32:00,51.1,46.1,29.97,West,265,4.6,5.8,83,0.00,,,0.00,0.00,VWS V14.01,2013-10-17 02:32:00,
2013-10-16 21:33:00,51.1,46.1,29.97,West,267,4.6,5.8,83,0.00,,,0.00,0.00,VWS V14.01,2013-10-17 02:33:00,
2013-10-16 21:35:00,51.1,46.1,29.97,WSW,254,3.4,6.9,83,0.00,,,0.00,0.00,VWS V14.01,2013-10-17 02:35:00,
2013-10-16 21:37:00,51.0,46.0,29.97,WSW,257,3.4,4.6,83,0.00,,,0.00,0.00,VWS V14.01,2013-10-17 02:37:00,
2013-10-16 21:38:00,51.0,46.0,29.97,WSW,254,5.8,5.8,83,0.00,,,0.00,0.00,VWS V14.01,2013-10-17 02:38:00,
2013-10-16 21:42:00,51.0,46.0,29.97,West,259,5.8,8.1,83,0.00,,,0.00,0.00,VWS V14.01,2013-10-17 02:42:00,
2013-10-16 21:43:00,51.0,46.3,29.97,WSW,253,6.9,8.1,84,0.00,,,0.00,0.00,VWS V14.01,2013-10-17 02:43:00,
2013-10-16 21:44:00,51.0,46.3,29.97,WSW,246,5.8,8.1,84,0.00,,,0.00,0.00,VWS V14.01,2013-10-17 02:44:00,
2013-10-16 21:48:00,51.0,46.3,29.97,West,273,5.8,9.2,84,0.00,,,0.00,0.00,VWS V14.01,2013-10-17 02:48:00,
2013-10-16 21:49:00,51.0,46.3,29.97,West,277,5.8,9.2,84,0.00,,,0.00,0.00,VWS V14.01,2013-10-17 02:49:00,
2013-10-16 21:54:00,51.0,46.3,29.97,West,262,3.4,6.9,84,0.00,,,0.00,0.00,VWS V14.01,2013-10-17 02:54:00,
2013-10-16 21:55:00,50.9,46.2,29.98,West,262,5.8,6.9,84,0.00,,,0.00,0.00,VWS V14.01,2013-10-17 02:55:00,
2013-10-16 21:56:00,51.0,46.3,29.97,WSW,257,5.8,5.8,84,0.00,,,0.00,0.00,VWS V14.01,2013-10-17 02:56:00,
2013-10-16 21:59:00,50.9,46.2,29.97,WSW,250,8.1,8.1,84,0.00,,,0.00,0.00,VWS V14.01,2013-10-17 02:59:00,
2013-10-16 22:00:00,50.9,46.2,29.97,West,261,3.4,8.1,84,0.00,,,0.00,0.00,VWS V14.01,2013-10-17 03:00:00,
2013-10-16 22:01:00,50.9,46.2,29.97,WNW,286,4.6,5.8,84,0.00,,,0.00,0.00,VWS V14.01,2013-10-17 03:01:00,
2013-10-16 22:05:00,50.9,46.2,29.97,West,270,6.9,6.9,84,0.00,,,0.00,0.00,VWS V14.01,2013-10-17 03:05:00,
2013-10-16 22:06:00,50.9,46.2,29.97,West,269,6.9,6.9,84,0.00,,,0.00,0.00,VWS V14.01,2013-10-17 03:06:00,
2013-10-16 22:07:00,50.9,46.2,29.97,West,263,4.6,9.2,84,0.00,,,0.00,0.00,VWS V14.01,2013-10-17 03:07:00,
2013-10-16 22:10:00,50.9,46.2,29.97,West,263,2.3,9.2,84,0.00,,,0.00,0.00,VWS V14.01,2013-10-17 03:10:00,
2013-10-16 22:12:00,50.9,46.2,29.97,West,263,4.6,4.6,84,0.00,,,0.00,0.00,VWS V14.01,2013-10-17 03:12:00,
2013-10-16 22:13:00,50.9,46.2,29.97,West,259,5.8,6.9,84,0.00,,,0.00,0.00,VWS V14.01,2013-10-17 03:13:00,
2013-10-16 22:14:00,50.9,46.2,29.97,West,260,4.6,6.9,84,0.00,,,0.00,0.00,VWS V14.01,2013-10-17 03:14:00,
2013-10-16 22:15:00,50.9,46.2,29.97,WSW,254,5.8,6.9,84,0.00,,,0.00,0.00,VWS V14.01,2013-10-17 03:15:00,
2013-10-16 22:17:00,50.9,46.2,29.97,West,260,4.6,6.9,84,0.00,,,0.00,0.00,VWS V14.01,2013-10-17 03:17:00,
2013-10-16 22:18:00,50.9,46.2,29.97,West,260,4.6,6.9,84,0.00,,,0.00,0.00,VWS V14.01,2013-10-17 03:18:00,
2013-10-16 22:19:00,50.9,46.2,29.97,West,265,3.4,6.9,84,0.00,,,0.00,0.00,VWS V14.01,2013-10-17 03:19:00,
2013-10-16 22:20:00,50.9,46.2,29.97,WSW,257,5.8,5.8,84,0.00,,,0.00,0.00,VWS V14.01,2013-10-17 03:20:00,
2013-10-16 22:21:00,50.9,46.2,29.97,WSW,257,3.4,5.8,84,0.00,,,0.00,0.00,VWS V14.01,2013-10-17 03:21:00,
2013-10-16 22:22:00,50.9,46.2,29.97,West,259,5.8,5.8,84,0.00,,,0.00,0.00,VWS V14.01,2013-10-17 03:22:00,
2013-10-16 22:23:00,50.9,46.2,29.97,WSW,245,4.6,5.8,84,0.00,,,0.00,0.00,VWS V14.01,2013-10-17 03:23:00,
2013-10-16 22:24:00,50.9,46.2,29.97,WSW,246,4.6,5.8,84,0.00,,,0.00,0.00,VWS V14.01,2013-10-17 03:24:00,
2013-10-16 22:26:00,50.9,46.2,29.97,WSW,254,4.6,4.6,84,0.00,,,0.00,0.00,VWS V14.01,2013-10-17 03:26:00,
2013-10-16 22:27:00,50.8,46.2,29.97,West,260,3.4,4.6,84,0.00,,,0.00,0.00,VWS V14.01,2013-10-17 03:27:00,
2013-10-16 22:28:00,50.8,46.2,29.97,West,261,3.4,4.6,84,0.00,,,0.00,0.00,VWS V14.01,2013-10-17 03:28:00,
2013-10-16 22:29:00,50.8,46.2,29.97,West,261,2.3,4.6,84,0.00,,,0.00,0.00,VWS V14.01,2013-10-17 03:29:00,
2013-10-16 22:30:00,50.8,46.2,29.97,West,261,3.4,4.6,84,0.00,,,0.00,0.00,VWS V14.01,2013-10-17 03:30:00,
2013-10-16 22:31:00,50.8,46.2,29.97,West,265,2.3,4.6,84,0.00,,,0.00,0.00,VWS V14.01,2013-10-17 03:31:00,
2013-10-16 22:32:00,50.9,46.2,29.97,West,265,4.6,6.9,84,0.00,,,0.00,0.00,VWS V14.01,2013-10-17 03:32:00,
2013-10-16 22:33:00,50.8,46.2,29.97,West,265,4.6,6.9,84,0.00,,,0.00,0.00,VWS V14.01,2013-10-17 03:33:00,
2013-10-16 22:35:00,50.8,46.2,29.97,West,265,2.3,6.9,84,0.00,,,0.00,0.00,VWS V14.01,2013-10-17 03:35:00,
2013-10-16 22:36:00,50.8,46.2,29.97,West,265,4.6,4.6,84,0.00,,,0.00,0.00,VWS V14.01,2013-10-17 03:36:00,
2013-10-16 22:39:00,50.8,46.2,29.97,West,259,3.4,6.9,84,0.00,,,0.00,0.00,VWS V14.01,2013-10-17 03:39:00,
2013-10-16 22:40:00,50.8,46.2,29.97,West,259,2.3,6.9,84,0.00,,,0.00,0.00,VWS V14.01,2013-10-17 03:40:00,
2013-10-16 22:43:00,50.8,46.2,29.97,WSW,252,3.4,8.1,84,0.00,,,0.00,0.00,VWS V14.01,2013-10-17 03:43:00,
2013-10-16 22:45:00,50.8,46.2,29.97,West,272,3.4,8.1,84,0.00,,,0.00,0.00,VWS V14.01,2013-10-17 03:45:00,
2013-10-16 22:46:00,50.8,46.2,29.97,West,272,2.3,3.4,84,0.00,,,0.00,0.00,VWS V14.01,2013-10-17 03:46:00,
2013-10-16 22:49:00,50.8,46.2,29.97,West,267,6.9,6.9,84,0.00,,,0.00,0.00,VWS V14.01,2013-10-17 03:49:00,
2013-10-16 22:50:00,50.8,46.2,29.97,West,267,2.3,2.3,84,0.00,,,0.00,0.00,VWS V14.01,2013-10-17 03:50:00,
2013-10-16 22:51:00,50.8,46.2,29.97,West,267,4.6,4.6,84,0.00,,,0.00,0.00,VWS V14.01,2013-10-17 03:51:00,
2013-10-16 22:52:00,50.8,46.2,29.97,West,267,3.4,4.6,84,0.00,,,0.00,0.00,VWS V14.01,2013-10-17 03:52:00,
2013-10-16 22:53:00,50.8,46.2,29.97,West,267,4.6,4.6,84,0.00,,,0.00,0.00,VWS V14.01,2013-10-17 03:53:00,
2013-10-16 22:54:00,50.8,46.2,29.97,West,260,4.6,5.8,84,0.00,,,0.00,0.00,VWS V14.01,2013-10-17 03:54:00,
2013-10-16 22:56:00,50.8,46.2,29.97,WSW,243,6.9,8.1,84,0.00,,,0.00,0.00,VWS V14.01,2013-10-17 03:56:00,
2013-10-16 22:57:00,50.8,46.2,29.97,WSW,245,5.8,8.1,84,0.00,,,0.00,0.00,VWS V14.01,2013-10-17 03:57:00,
2013-10-16 22:58:00,50.7,46.0,29.97,West,265,4.6,8.1,84,0.00,,,0.00,0.00,VWS V14.01,2013-10-17 03:58:00,
2013-10-16 22:59:00,50.8,46.2,29.97,West,265,2.3,8.1,84,0.00,,,0.00,0.00,VWS V14.01,2013-10-17 03:59:00,
2013-10-16 23:01:00,50.7,46.0,29.97,West,265,5.8,5.8,84,0.00,,,0.00,0.00,VWS V14.01,2013-10-17 04:01:00,
2013-10-16 23:02:00,50.7,46.0,29.97,West,259,5.8,9.2,84,0.00,,,0.00,0.00,VWS V14.01,2013-10-17 04:02:00,
2013-10-16 23:05:00,50.7,46.0,29.97,WSW,246,6.9,9.2,84,0.00,,,0.00,0.00,VWS V14.01,2013-10-17 04:05:00,
2013-10-16 23:06:00,50.7,46.0,29.97,West,273,3.4,5.8,84,0.00,,,0.00,0.00,VWS V14.01,2013-10-17 04:06:00,
2013-10-16 23:07:00,50.7,46.0,29.97,West,273,2.3,5.8,84,0.00,,,0.00,0.00,VWS V14.01,2013-10-17 04:07:00,
2013-10-16 23:09:00,50.7,46.0,29.97,West,275,2.3,5.8,84,0.00,,,0.00,0.00,VWS V14.01,2013-10-17 04:09:00,
2013-10-16 23:11:00,50.7,46.4,29.97,West,281,5.8,6.9,85,0.00,,,0.00,0.00,VWS V14.01,2013-10-17 04:11:00,
2013-10-16 23:12:00,50.7,46.4,29.97,West,277,4.6,9.2,85,0.00,,,0.00,0.00,VWS V14.01,2013-10-17 04:12:00,
2013-10-16 23:13:00,50.7,46.4,29.97,West,276,8.1,9.2,85,0.00,,,0.00,0.00,VWS V14.01,2013-10-17 04:13:00,
2013-10-16 23:14:00,50.7,46.4,29.97,West,279,5.8,9.2,85,0.00,,,0.00,0.00,VWS V14.01,2013-10-17 04:14:00,
2013-10-16 23:16:00,50.7,46.4,29.97,West,278,8.1,8.1,85,0.00,,,0.00,0.00,VWS V14.01,2013-10-17 04:16:00,
2013-10-16 23:17:00,50.6,46.3,29.97,West,276,3.4,8.1,85,0.00,,,0.00,0.00,VWS V14.01,2013-10-17 04:17:00,
2013-10-16 23:18:00,50.6,46.3,29.97,West,275,8.1,8.1,85,0.00,,,0.00,0.00,VWS V14.01,2013-10-17 04:18:00,
2013-10-16 23:19:00,50.6,46.3,29.97,West,267,8.1,8.1,85,0.00,,,0.00,0.00,VWS V14.01,2013-10-17 04:19:00,
2013-10-16 23:20:00,50.6,46.3,29.97,West,271,4.6,9.2,85,0.00,,,0.00,0.00,VWS V14.01,2013-10-17 04:20:00,
2013-10-16 23:22:00,50.6,46.3,29.97,West,273,5.8,5.8,85,0.00,,,0.00,0.00,VWS V14.01,2013-10-17 04:22:00,
2013-10-16 23:24:00,50.6,46.3,29.97,West,273,4.6,5.8,85,0.00,,,0.00,0.00,VWS V14.01,2013-10-17 04:24:00,
2013-10-16 23:25:00,50.6,46.3,29.97,West,274,4.6,6.9,85,0.00,,,0.00,0.00,VWS V14.01,2013-10-17 04:25:00,
2013-10-16 23:27:00,50.6,46.3,29.97,West,273,2.3,6.9,85,0.00,,,0.00,0.00,VWS V14.01,2013-10-17 04:27:00,
2013-10-16 23:29:00,50.6,46.3,29.97,West,273,4.6,6.9,85,0.00,,,0.00,0.00,VWS V14.01,2013-10-17 04:29:00,
2013-10-16 23:30:00,50.6,46.3,29.97,WNW,288,5.8,6.9,85,0.00,,,0.00,0.00,VWS V14.01,2013-10-17 04:30:00,
2013-10-16 23:31:00,50.6,46.3,29.96,WNW,284,3.4,4.6,85,0.00,,,0.00,0.00,VWS V14.01,2013-10-17 04:31:00,
2013-10-16 23:33:00,50.6,46.3,29.96,West,266,3.4,6.9,85,0.00,,,0.00,0.00,VWS V14.01,2013-10-17 04:33:00,
2013-10-16 23:34:00,50.6,46.3,29.96,West,266,5.8,6.9,85,0.00,,,0.00,0.00,VWS V14.01,2013-10-17 04:34:00,
2013-10-16 23:35:00,50.6,46.3,29.96,West,272,5.8,8.1,85,0.00,,,0.00,0.00,VWS V14.01,2013-10-17 04:35:00,
2013-10-16 23:36:00,50.5,46.2,29.96,West,273,5.8,6.9,85,0.00,,,0.00,0.00,VWS V14.01,2013-10-17 04:36:00,
2013-10-16 23:38:00,50.6,46.3,29.96,West,264,4.6,8.1,85,0.00,,,0.00,0.00,VWS V14.01,2013-10-17 04:38:00,
2013-10-16 23:40:00,50.6,46.3,29.96,West,273,3.4,8.1,85,0.00,,,0.00,0.00,VWS V14.01,2013-10-17 04:40:00,
2013-10-16 23:41:00,50.6,46.3,29.96,West,273,2.3,3.4,85,0.00,,,0.00,0.00,VWS V14.01,2013-10-17 04:41:00,
2013-10-16 23:42:00,50.5,46.2,29.96,West,273,2.3,8.1,85,0.00,,,0.00,0.00,VWS V14.01,2013-10-17 04:42:00,
2013-10-16 23:43:00,50.5,46.2,29.96,West,265,4.6,8.1,85,0.00,,,0.00,0.00,VWS V14.01,2013-10-17 04:43:00,
2013-10-16 23:46:00,50.5,46.2,29.95,WSW,252,4.6,5.8,85,0.00,,,0.00,0.00,VWS V14.01,2013-10-17 04:46:00,
2013-10-16 23:48:00,50.5,46.2,29.95,WSW,257,4.6,5.8,85,0.00,,,0.00,0.00,VWS V14.01,2013-10-17 04:48:00,
2013-10-16 23:49:00,50.5,46.2,29.95,WSW,257,3.4,5.8,85,0.00,,,0.00,0.00,VWS V14.01,2013-10-17 04:49:00,
2013-10-16 23:51:00,50.5,46.2,29.95,WSW,258,2.3,4.6,85,0.00,,,0.00,0.00,VWS V14.01,2013-10-17 04:51:00,
2013-10-16 23:52:00,50.5,46.2,29.95,WSW,258,3.4,4.6,85,0.00,,,0.00,0.00,VWS V14.01,2013-10-17 04:52:00,
2013-10-16 23:53:00,50.5,46.2,29.95,WSW,258,3.4,4.6,85,0.00,,,0.00,0.00,VWS V14.01,2013-10-17 04:53:00,
2013-10-16 23:55:00,50.5,46.2,29.95,WSW,258,4.6,4.6,85,0.00,,,0.00,0.00,VWS V14.01,2013-10-17 04:55:00,
2013-10-16 23:56:00,50.5,46.2,29.96,WSW,254,4.6,6.9,85,0.00,,,0.00,0.00,VWS V14.01,2013-10-17 04:56:00,
2013-10-16 23:57:00,50.5,46.2,29.96,WSW,254,2.3,6.9,85,0.00,,,0.00,0.00,VWS V14.01,2013-10-17 04:57:00,
2013-10-16 23:59:00,50.5,46.2,29.96,WSW,255,1.1,6.9,85,0.00,,,0.00,0.00,VWS V14.01,2013-10-17 04:59:00,